EDW24 LSZH-MMUN

Flight info

Callsign EDW24
Flight time 11h 8m
Altitude 34000
Route VEBIT T10 TORPA DCT REKLA DCT RLP DCT ROTSI DCT KOTUN DCT AMAXA DCT VESAN DCT RATUK DCT SOVAT L613 SANDY DCT ODVIK DCT SAM N19 ADKIK DCT FONZU DCT LESLU/N0460F360 DCT BIBLA/M081F360 DCT DINIM/M081F370 DCT 52N020W 53N030W 53N040W 52N050W DCT TUDEP/N0458F380 DCT ALLEX DCT HTO DCT ORF/N0458F400 DCT CHS DCT TAY DCT CTY DCT CIGAR DCT NAVVL DCT SHARQ DCT WALKY DCT NOSAT NOSAT1B
Aircraft A343/H-SDE2E3FGHIJ4J5M1RWXY/LB1D1

Departure

Time 2026-04-26 02:07
Airport Zürich Airport (LSZH)

Arrival

Time 2026-04-26 13:15
Airport Cancún International Airport (MMUN)
Time Latitude Longitude Altitude Speed Heading
2026-04-26 01:48 47.46044 8.55625 1405 ft 0 kts
2026-04-26 01:57 47.46038 8.55624 1405 ft 4 kts
2026-04-26 01:57 47.46011 8.55617 1404 ft 4 kts 15°
2026-04-26 01:57 47.45986 8.55603 1414 ft 4 kts 30°
2026-04-26 01:57 47.45966 8.55580 1404 ft 4 kts 62°
2026-04-26 01:58 47.45961 8.55558 1404 ft 0 kts 96°
2026-04-26 02:00 47.45961 8.55561 1404 ft 1 kts 96°
2026-04-26 02:00 47.45959 8.55593 1409 ft 5 kts 96°
2026-04-26 02:00 47.45954 8.55661 1408 ft 8 kts 96°
2026-04-26 02:00 47.45948 8.55747 1414 ft 7 kts 96°
2026-04-26 02:01 47.45943 8.55816 1414 ft 7 kts 96°
2026-04-26 02:01 47.45937 8.55887 1413 ft 7 kts 96°
2026-04-26 02:01 47.45932 8.55961 1413 ft 8 kts 96°
2026-04-26 02:01 47.45926 8.56040 1412 ft 8 kts 95°
2026-04-26 02:02 47.45921 8.56125 1415 ft 9 kts 95°
2026-04-26 02:02 47.45915 8.56213 1420 ft 9 kts 95°
2026-04-26 02:02 47.45909 8.56290 1419 ft 6 kts 96°
2026-04-26 02:02 47.45904 8.56363 1422 ft 8 kts 96°
2026-04-26 02:03 47.45880 8.56434 1426 ft 8 kts 131°
2026-04-26 02:03 47.45842 8.56490 1422 ft 7 kts 138°
2026-04-26 02:03 47.45808 8.56539 1425 ft 8 kts 126°
2026-04-26 02:03 47.45793 8.56644 1425 ft 11 kts 95°
2026-04-26 02:04 47.45786 8.56749 1424 ft 10 kts 96°
2026-04-26 02:04 47.45780 8.56836 1427 ft 7 kts 96°
2026-04-26 02:04 47.45774 8.56922 1427 ft 10 kts 96°
2026-04-26 02:04 47.45758 8.57003 1428 ft 7 kts 122°
2026-04-26 02:05 47.45724 8.57031 1429 ft 6 kts 166°
2026-04-26 02:05 47.45678 8.57029 1428 ft 5 kts 197°
2026-04-26 02:05 47.45665 8.57001 1428 ft 3 kts 248°
2026-04-26 02:05 47.45667 8.56956 1428 ft 0 kts 276°
2026-04-26 02:06 47.45668 8.56942 1428 ft 6 kts 276°
2026-04-26 02:06 47.45673 8.56855 1426 ft 31 kts 276°
2026-04-26 02:06 47.45716 8.56267 1420 ft 81 kts 276°
2026-04-26 02:07 47.45794 8.55164 1406 ft 135 kts 276°
2026-04-26 02:07 47.45906 8.53574 1516 ft 167 kts 276°
2026-04-26 02:07 47.46014 8.51893 2169 ft 164 kts 275°
2026-04-26 02:07 47.46110 8.50159 2627 ft 180 kts 273°
2026-04-26 02:08 47.45840 8.48222 2861 ft 209 kts 243°
2026-04-26 02:08 47.45009 8.46326 3073 ft 233 kts 233°
2026-04-26 02:08 47.43975 8.44327 3250 ft 256 kts 232°
2026-04-26 02:08 47.42858 8.42189 3676 ft 268 kts 232°
2026-04-26 02:09 47.41720 8.39983 4291 ft 271 kts 232°
2026-04-26 02:09 47.40583 8.37762 5013 ft 271 kts 233°
2026-04-26 02:09 47.39453 8.35541 5720 ft 271 kts 234°
2026-04-26 02:09 47.38455 8.33173 6421 ft 272 kts 242°
2026-04-26 02:10 47.37562 8.30708 7085 ft 273 kts 243°
2026-04-26 02:10 47.36680 8.28216 7710 ft 275 kts 243°
2026-04-26 02:10 47.35788 8.25693 8295 ft 279 kts 243°
2026-04-26 02:10 47.34883 8.23145 8873 ft 282 kts 243°
2026-04-26 02:11 47.33967 8.20570 9495 ft 285 kts 243°
2026-04-26 02:11 47.33043 8.17967 10093 ft 288 kts 244°
2026-04-26 02:11 47.32104 8.15324 10490 ft 297 kts 244°
2026-04-26 02:11 47.31126 8.12560 10708 ft 312 kts 244°
2026-04-26 02:12 47.30098 8.09664 10913 ft 326 kts 243°
2026-04-26 02:12 47.29021 8.06639 11094 ft 341 kts 243°
2026-04-26 02:12 47.27919 8.03465 11294 ft 354 kts 247°
2026-04-26 02:12 47.27215 8.00023 11599 ft 360 kts 264°
2026-04-26 02:13 47.27160 7.96328 12054 ft 363 kts 274°
2026-04-26 02:13 47.27392 7.92610 12547 ft 366 kts 278°
2026-04-26 02:13 47.27763 7.88893 13053 ft 369 kts 281°
2026-04-26 02:13 47.28189 7.85153 13572 ft 372 kts 281°
2026-04-26 02:14 47.28619 7.81386 14082 ft 375 kts 281°
2026-04-26 02:14 47.29034 7.77581 14552 ft 377 kts 280°
2026-04-26 02:14 47.29428 7.73750 15062 ft 379 kts 280°
2026-04-26 02:14 47.29804 7.69906 15557 ft 381 kts 279°
2026-04-26 02:15 47.30174 7.66030 16080 ft 382 kts 280°
2026-04-26 02:15 47.30734 7.62206 16584 ft 383 kts 286°
2026-04-26 02:15 47.31445 7.58417 17078 ft 385 kts 288°
2026-04-26 02:15 47.32224 7.54633 17587 ft 386 kts 289°
2026-04-26 02:16 47.33039 7.50853 18081 ft 388 kts 289°
2026-04-26 02:16 47.33874 7.47058 18528 ft 391 kts 289°
2026-04-26 02:16 47.34717 7.43234 18948 ft 393 kts 289°
2026-04-26 02:16 47.35561 7.39388 19362 ft 395 kts 289°
2026-04-26 02:17 47.36406 7.35515 19719 ft 399 kts 289°
2026-04-26 02:17 47.37255 7.31597 20093 ft 402 kts 289°
2026-04-26 02:17 47.38105 7.27655 20516 ft 404 kts 288°
2026-04-26 02:17 47.38955 7.23698 20938 ft 406 kts 288°
2026-04-26 02:18 47.39807 7.19724 21335 ft 407 kts 288°
2026-04-26 02:18 47.40602 7.15700 21740 ft 410 kts 285°
2026-04-26 02:18 47.41278 7.11597 22125 ft 412 kts 284°
2026-04-26 02:18 47.41919 7.07464 22507 ft 414 kts 283°
2026-04-26 02:19 47.42540 7.03294 22883 ft 417 kts 283°
2026-04-26 02:19 47.43152 6.99102 23258 ft 419 kts 282°
2026-04-26 02:19 47.43761 6.94889 23651 ft 420 kts 282°
2026-04-26 02:19 47.44363 6.90712 23980 ft 422 kts 282°
2026-04-26 02:20 47.44977 6.86462 24296 ft 424 kts 282°
2026-04-26 02:20 47.45594 6.82195 24604 ft 426 kts 282°
2026-04-26 02:20 47.46213 6.77902 24888 ft 428 kts 282°
2026-04-26 02:20 47.46835 6.73593 25187 ft 430 kts 282°
2026-04-26 02:21 47.47458 6.69265 25478 ft 431 kts 282°
2026-04-26 02:21 47.47954 6.64887 25765 ft 433 kts 277°
2026-04-26 02:21 47.48337 6.60465 26062 ft 434 kts 277°
2026-04-26 02:21 47.48684 6.56027 26352 ft 436 kts 276°
2026-04-26 02:22 47.49009 6.51566 26619 ft 437 kts 276°
2026-04-26 02:22 47.49324 6.47089 26893 ft 439 kts 276°
2026-04-26 02:22 47.49637 6.42586 27148 ft 441 kts 276°
2026-04-26 02:22 47.49951 6.38067 27406 ft 442 kts 276°
2026-04-26 02:23 47.50265 6.33532 27662 ft 444 kts 276°
2026-04-26 02:23 47.50581 6.28987 27915 ft 445 kts 276°
2026-04-26 02:23 47.50897 6.24430 28171 ft 446 kts 276°
2026-04-26 02:23 47.51214 6.19857 28459 ft 447 kts 275°
2026-04-26 02:24 47.51530 6.15277 28700 ft 448 kts 275°
2026-04-26 02:24 47.51844 6.10679 28928 ft 450 kts 275°
2026-04-26 02:24 47.52158 6.06066 29155 ft 452 kts 275°
2026-04-26 02:24 47.52467 6.01493 29386 ft 453 kts 275°
2026-04-26 02:25 47.52784 5.96783 29617 ft 454 kts 275°
2026-04-26 02:25 47.53237 5.92210 29817 ft 456 kts 282°
2026-04-26 02:25 47.54100 5.87679 30028 ft 458 kts 289°
2026-04-26 02:25 47.55418 5.83382 30294 ft 459 kts 298°
2026-04-26 02:26 47.57187 5.79449 30554 ft 460 kts 307°
2026-04-26 02:26 47.59244 5.75818 30834 ft 460 kts 309°
2026-04-26 02:26 47.61376 5.72298 31110 ft 459 kts 310°
2026-04-26 02:26 47.62840 5.69947 31283 ft 458 kts 311°
2026-04-26 02:27 47.64982 5.66542 31524 ft 458 kts 311°
2026-04-26 02:27 47.67154 5.63094 31771 ft 457 kts 311°
2026-04-26 02:27 47.69317 5.59642 32000 ft 457 kts 310°
2026-04-26 02:27 47.71473 5.56180 32214 ft 456 kts 310°
2026-04-26 02:28 47.73617 5.52716 32448 ft 455 kts 310°
2026-04-26 02:28 47.75755 5.49249 32642 ft 455 kts 310°
2026-04-26 02:28 47.77887 5.45782 32866 ft 454 kts 310°
2026-04-26 02:28 47.80015 5.42312 33098 ft 453 kts 310°
2026-04-26 02:29 47.82137 5.38849 33317 ft 452 kts 310°
2026-04-26 02:29 47.84253 5.35390 33550 ft 451 kts 310°
2026-04-26 02:29 47.86364 5.31935 33726 ft 451 kts 310°
2026-04-26 02:29 47.88471 5.28482 33916 ft 451 kts 309°
2026-04-26 02:30 47.90579 5.25025 34137 ft 450 kts 309°
2026-04-26 02:30 47.94785 5.18123 34186 ft 448 kts 309°
2026-04-26 02:31 47.98955 5.11246 34188 ft 446 kts 309°
2026-04-26 02:31 48.03117 5.04364 34190 ft 447 kts 310°
2026-04-26 02:32 48.07282 4.97468 34196 ft 447 kts 310°
2026-04-26 02:32 48.11419 4.90600 34195 ft 447 kts 310°
2026-04-26 02:33 48.15575 4.83686 34194 ft 446 kts 310°
2026-04-26 02:33 48.19721 4.76766 34197 ft 446 kts 310°
2026-04-26 02:34 48.23865 4.69829 34200 ft 446 kts 310°
2026-04-26 02:34 48.28009 4.62874 34202 ft 447 kts 311°
2026-04-26 02:35 48.32157 4.55905 34202 ft 447 kts 310°
2026-04-26 02:35 48.36290 4.48924 34198 ft 447 kts 310°
2026-04-26 02:36 48.40424 4.41926 34208 ft 447 kts 310°
2026-04-26 02:36 48.44551 4.34932 34206 ft 447 kts 310°
2026-04-26 02:37 48.48674 4.27922 34208 ft 447 kts 311°
2026-04-26 02:37 48.52794 4.20901 34212 ft 446 kts 311°
2026-04-26 02:38 48.56908 4.13871 34208 ft 447 kts 311°
2026-04-26 02:38 48.61012 4.06834 34211 ft 446 kts 310°
2026-04-26 02:39 48.65111 3.99788 34214 ft 446 kts 310°
2026-04-26 02:39 48.69178 3.92779 34213 ft 446 kts 310°
2026-04-26 02:40 48.73554 3.86138 34210 ft 446 kts 320°
2026-04-26 02:40 48.78503 3.80454 34218 ft 447 kts 323°
2026-04-26 02:41 48.83557 3.74935 34219 ft 447 kts 323°
2026-04-26 02:41 48.88619 3.69437 34219 ft 447 kts 323°
2026-04-26 02:42 48.93679 3.63901 34221 ft 447 kts 323°
2026-04-26 02:42 48.98718 3.58356 34221 ft 447 kts 323°
2026-04-26 02:43 49.06274 3.50006 34223 ft 447 kts 323°
2026-04-26 02:43 49.11296 3.44439 34226 ft 446 kts 323°
2026-04-26 02:44 49.16273 3.38912 34224 ft 445 kts 323°
2026-04-26 02:44 49.21290 3.33322 34226 ft 446 kts 323°
2026-04-26 02:45 49.26294 3.27729 34239 ft 445 kts 323°
2026-04-26 02:45 49.31295 3.22129 34233 ft 446 kts 323°
2026-04-26 02:46 49.36300 3.16514 34237 ft 446 kts 323°
2026-04-26 02:46 49.41299 3.10889 34232 ft 445 kts 323°
2026-04-26 02:47 49.46293 3.05254 34236 ft 444 kts 322°
2026-04-26 02:47 49.51268 2.99626 34238 ft 444 kts 322°
2026-04-26 02:48 49.56244 2.93979 34240 ft 445 kts 322°
2026-04-26 02:48 49.61220 2.88321 34240 ft 445 kts 322°
2026-04-26 02:49 49.66196 2.82648 34240 ft 445 kts 322°
2026-04-26 02:49 49.71165 2.76967 34240 ft 444 kts 322°
2026-04-26 02:50 49.76103 2.71309 34248 ft 445 kts 322°
2026-04-26 02:50 49.81124 2.65617 34247 ft 444 kts 323°
2026-04-26 02:51 49.86116 2.60108 34256 ft 443 kts 323°
2026-04-26 02:51 49.91138 2.54560 34250 ft 443 kts 323°
2026-04-26 02:52 49.96150 2.48985 34245 ft 443 kts 323°
2026-04-26 02:52 50.01163 2.43381 34245 ft 444 kts 323°
2026-04-26 02:53 50.06177 2.37758 34245 ft 445 kts 323°
2026-04-26 02:53 50.11194 2.32117 34253 ft 445 kts 323°
2026-04-26 02:54 50.16209 2.26462 34260 ft 444 kts 323°
2026-04-26 02:54 50.21191 2.20834 34262 ft 441 kts 323°
2026-04-26 02:55 50.26162 2.15203 34267 ft 441 kts 323°
2026-04-26 02:55 50.31133 2.09560 34270 ft 441 kts 323°
2026-04-26 02:56 50.36097 2.03905 34264 ft 441 kts 323°
2026-04-26 02:56 50.40907 1.98046 34279 ft 441 kts 318°
2026-04-26 02:57 50.45489 1.91642 34260 ft 442 kts 317°
2026-04-26 02:57 50.50060 1.85194 34267 ft 442 kts 317°
2026-04-26 02:58 50.54658 1.78822 34264 ft 439 kts 318°
2026-04-26 02:58 50.59248 1.72518 34265 ft 438 kts 318°
2026-04-26 02:59 50.63838 1.66206 34286 ft 438 kts 318°
2026-04-26 02:59 50.68430 1.59879 34269 ft 439 kts 318°
2026-04-26 03:00 50.73019 1.53528 34289 ft 439 kts 318°
2026-04-26 03:00 50.77603 1.47154 34269 ft 439 kts 318°
2026-04-26 03:01 50.82184 1.40783 34286 ft 439 kts 318°
2026-04-26 03:01 50.86756 1.34399 34287 ft 437 kts 317°
2026-04-26 03:02 50.91313 1.28022 34285 ft 438 kts 317°
2026-04-26 03:02 50.95874 1.21623 34298 ft 438 kts 317°
2026-04-26 03:03 51.00434 1.15209 34285 ft 438 kts 317°
2026-04-26 03:03 51.04677 1.08306 34304 ft 436 kts 306°
2026-04-26 03:04 51.07557 0.99862 34289 ft 436 kts 290°
2026-04-26 03:04 51.09355 0.90706 34294 ft 437 kts 286°
2026-04-26 03:05 51.10962 0.81391 34279 ft 436 kts 285°
2026-04-26 03:05 51.12546 0.72083 34275 ft 436 kts 286°
2026-04-26 03:06 51.14150 0.62773 34273 ft 436 kts 286°
2026-04-26 03:06 51.15683 0.53432 34238 ft 437 kts 281°
2026-04-26 03:07 51.15978 0.43792 34242 ft 438 kts 265°
2026-04-26 03:07 51.15132 0.34199 34236 ft 437 kts 262°
2026-04-26 03:08 51.14071 0.24659 34243 ft 438 kts 262°
2026-04-26 03:08 51.12986 0.15119 34258 ft 438 kts 262°
2026-04-26 03:09 51.11919 0.05579 34270 ft 438 kts 262°
2026-04-26 03:09 51.10859 -0.03959 34289 ft 437 kts 262°
2026-04-26 03:10 51.09798 -0.13462 34293 ft 435 kts 262°
2026-04-26 03:10 51.08731 -0.22933 34289 ft 435 kts 262°
2026-04-26 03:11 51.07660 -0.32346 34289 ft 435 kts 262°
2026-04-26 03:11 51.06580 -0.41774 34289 ft 432 kts 261°
2026-04-26 03:12 51.05493 -0.51178 34289 ft 431 kts 261°
2026-04-26 03:12 51.04405 -0.60551 34275 ft 431 kts 261°
2026-04-26 03:13 51.03309 -0.69917 34279 ft 431 kts 261°
2026-04-26 03:13 51.02204 -0.79289 34276 ft 431 kts 261°
2026-04-26 03:14 51.01093 -0.88645 34271 ft 431 kts 261°
2026-04-26 03:14 51.00164 -0.96421 34262 ft 431 kts 261°
2026-04-26 03:15 50.99032 -1.05822 34269 ft 430 kts 261°
2026-04-26 03:15 50.97908 -1.15087 34266 ft 430 kts 261°
2026-04-26 03:16 50.96771 -1.24400 34269 ft 430 kts 261°
2026-04-26 03:16 50.95619 -1.33771 34269 ft 430 kts 261°
2026-04-26 03:17 50.94467 -1.43009 34263 ft 430 kts 261°
2026-04-26 03:17 50.93277 -1.52272 34264 ft 428 kts 261°
2026-04-26 03:18 50.92084 -1.61501 34263 ft 427 kts 261°
2026-04-26 03:18 50.90889 -1.70722 34262 ft 428 kts 261°
2026-04-26 03:19 50.89688 -1.79953 34264 ft 427 kts 260°
2026-04-26 03:19 50.88482 -1.89176 34246 ft 427 kts 260°
2026-04-26 03:20 50.87265 -1.98407 34257 ft 429 kts 259°
2026-04-26 03:20 50.86041 -2.07664 34256 ft 430 kts 259°
2026-04-26 03:21 50.84802 -2.16920 34253 ft 430 kts 259°
2026-04-26 03:21 50.83558 -2.26178 34251 ft 430 kts 259°
2026-04-26 03:22 50.82306 -2.35420 34243 ft 430 kts 259°
2026-04-26 03:22 50.81045 -2.44660 34247 ft 430 kts 259°
2026-04-26 03:23 50.79945 -2.53935 34247 ft 428 kts 266°
2026-04-26 03:23 50.79873 -2.63330 34244 ft 428 kts 272°
2026-04-26 03:24 50.80076 -2.72729 34245 ft 428 kts 272°
2026-04-26 03:24 50.80320 -2.82134 34249 ft 428 kts 272°
2026-04-26 03:25 50.80546 -2.91539 34249 ft 428 kts 272°
2026-04-26 03:25 50.80748 -3.00939 34249 ft 428 kts 272°
2026-04-26 03:26 50.80941 -3.10352 34251 ft 428 kts 272°
2026-04-26 03:26 50.81128 -3.19762 34252 ft 428 kts 272°
2026-04-26 03:27 50.81306 -3.29111 34252 ft 428 kts 271°
2026-04-26 03:27 50.81476 -3.38523 34251 ft 428 kts 271°
2026-04-26 03:28 50.81638 -3.47931 34252 ft 428 kts 271°
2026-04-26 03:28 50.81792 -3.57340 34252 ft 428 kts 271°
2026-04-26 03:29 50.81940 -3.66748 34252 ft 428 kts 271°
2026-04-26 03:29 50.82080 -3.76156 34258 ft 427 kts 271°
2026-04-26 03:30 50.82213 -3.85539 34248 ft 426 kts 270°
2026-04-26 03:30 50.82409 -3.94896 34249 ft 426 kts 273°
2026-04-26 03:31 50.82994 -4.04219 34248 ft 426 kts 275°
2026-04-26 03:31 50.83644 -4.13535 34245 ft 426 kts 275°
2026-04-26 03:32 50.84234 -4.22871 34249 ft 426 kts 274°
2026-04-26 03:32 50.84778 -4.32210 34246 ft 427 kts 274°
2026-04-26 03:33 50.85307 -4.41565 34246 ft 427 kts 274°
2026-04-26 03:33 50.85830 -4.50925 34245 ft 427 kts 274°
2026-04-26 03:34 50.86347 -4.60293 34246 ft 427 kts 274°
2026-04-26 03:34 50.86853 -4.69604 34246 ft 427 kts 274°
2026-04-26 03:35 50.87357 -4.78974 34246 ft 427 kts 273°
2026-04-26 03:35 50.87851 -4.88355 34247 ft 427 kts 273°
2026-04-26 03:36 50.88339 -4.97731 34247 ft 427 kts 273°
2026-04-26 03:36 50.88821 -5.07121 34246 ft 427 kts 273°
2026-04-26 03:37 50.89294 -5.16510 34246 ft 428 kts 273°
2026-04-26 03:37 50.89761 -5.25905 34246 ft 428 kts 272°
2026-04-26 03:38 50.90219 -5.35293 34246 ft 428 kts 272°
2026-04-26 03:38 50.90669 -5.44688 34248 ft 427 kts 272°
2026-04-26 03:39 50.91112 -5.54080 34249 ft 427 kts 272°
2026-04-26 03:39 50.91546 -5.63468 34249 ft 427 kts 272°
2026-04-26 03:40 50.91974 -5.72809 34249 ft 428 kts 272°
2026-04-26 03:40 50.92393 -5.82225 34247 ft 428 kts 272°
2026-04-26 03:41 50.92806 -5.91650 34246 ft 429 kts 272°
2026-04-26 03:41 50.93214 -6.01078 34247 ft 429 kts 272°
2026-04-26 03:42 50.93612 -6.10512 34247 ft 429 kts 271°
2026-04-26 03:42 50.94004 -6.19946 34246 ft 428 kts 271°
2026-04-26 03:43 50.94387 -6.29367 34249 ft 428 kts 271°
2026-04-26 03:43 50.94762 -6.38799 34246 ft 429 kts 271°
2026-04-26 03:44 50.95130 -6.48227 34249 ft 428 kts 271°
2026-04-26 03:44 50.95492 -6.57657 34253 ft 428 kts 271°
2026-04-26 03:45 50.95847 -6.67089 34248 ft 429 kts 271°
2026-04-26 03:45 50.96192 -6.76537 34245 ft 430 kts 270°
2026-04-26 03:46 50.96530 -6.86001 34242 ft 430 kts 270°
2026-04-26 03:47 50.97023 -7.00189 34252 ft 429 kts 270°
2026-04-26 03:47 50.97343 -7.09645 34254 ft 429 kts 270°
2026-04-26 03:48 50.97655 -7.19103 34249 ft 429 kts 270°
2026-04-26 03:48 50.97958 -7.28561 34245 ft 429 kts 270°
2026-04-26 03:49 50.98254 -7.38016 34248 ft 429 kts 270°
2026-04-26 03:49 50.98543 -7.47485 34249 ft 430 kts 270°
2026-04-26 03:50 50.98823 -7.56886 34261 ft 429 kts 270°
2026-04-26 03:50 50.99095 -7.66338 34251 ft 428 kts 270°
2026-04-26 03:51 50.99361 -7.75779 34250 ft 428 kts 270°
2026-04-26 03:51 50.99617 -7.85223 34248 ft 428 kts 270°
2026-04-26 03:52 50.99867 -7.94672 34284 ft 429 kts 270°
2026-04-26 03:52 51.00680 -8.04145 34398 ft 437 kts 279°
2026-04-26 03:52 51.01338 -8.08850 34564 ft 437 kts 279°
2026-04-26 03:53 51.02036 -8.13547 34709 ft 437 kts 280°
2026-04-26 03:53 51.02754 -8.18243 34845 ft 437 kts 280°
2026-04-26 03:53 51.03476 -8.22930 34974 ft 438 kts 280°
2026-04-26 03:53 51.04199 -8.27629 35101 ft 438 kts 280°
2026-04-26 03:54 51.04917 -8.32331 35202 ft 438 kts 280°
2026-04-26 03:54 51.05632 -8.37047 35331 ft 439 kts 280°
2026-04-26 03:54 51.06342 -8.41765 35465 ft 438 kts 280°
2026-04-26 03:54 51.07047 -8.46486 35594 ft 439 kts 280°
2026-04-26 03:55 51.07748 -8.51198 35711 ft 439 kts 280°
2026-04-26 03:55 51.08450 -8.55923 35844 ft 439 kts 279°
2026-04-26 03:55 51.09141 -8.60593 35964 ft 439 kts 279°
2026-04-26 03:56 51.10533 -8.70052 36165 ft 439 kts 279°
2026-04-26 03:56 51.11923 -8.79543 36250 ft 442 kts 279°
2026-04-26 03:57 51.13243 -8.89054 36246 ft 438 kts 275°
2026-04-26 03:57 51.13624 -8.98657 36249 ft 434 kts 268°
2026-04-26 03:58 51.13685 -9.08268 36259 ft 434 kts 267°
2026-04-26 03:58 51.13678 -9.17888 36257 ft 435 kts 266°
2026-04-26 03:59 51.13670 -9.27507 36254 ft 434 kts 266°
2026-04-26 03:59 51.13666 -9.37068 36256 ft 435 kts 266°
2026-04-26 04:00 51.13660 -9.46696 36259 ft 435 kts 266°
2026-04-26 04:00 51.13651 -9.54752 36273 ft 434 kts 266°
2026-04-26 04:01 51.13633 -9.64382 36251 ft 435 kts 266°
2026-04-26 04:01 51.13602 -9.73962 36268 ft 435 kts 266°
2026-04-26 04:02 51.13566 -9.83661 36261 ft 435 kts 266°
2026-04-26 04:02 51.13522 -9.93228 36260 ft 435 kts 266°
2026-04-26 04:03 51.13469 -10.02862 36259 ft 435 kts 266°
2026-04-26 04:03 51.13412 -10.12500 36262 ft 435 kts 266°
2026-04-26 04:04 51.13344 -10.22142 36264 ft 436 kts 266°
2026-04-26 04:04 51.13268 -10.31798 36264 ft 436 kts 266°
2026-04-26 04:05 51.13183 -10.41448 36261 ft 436 kts 266°
2026-04-26 04:05 51.13089 -10.51114 36276 ft 436 kts 265°
2026-04-26 04:06 51.12988 -10.60793 36262 ft 438 kts 265°
2026-04-26 04:06 51.12881 -10.70489 36262 ft 438 kts 265°
2026-04-26 04:07 51.12765 -10.80188 36265 ft 438 kts 265°
2026-04-26 04:07 51.12640 -10.89876 36265 ft 438 kts 265°
2026-04-26 04:08 51.12508 -10.99506 36268 ft 438 kts 265°
2026-04-26 04:08 51.12367 -11.09225 36262 ft 440 kts 265°
2026-04-26 04:09 51.12219 -11.18954 36266 ft 440 kts 265°
2026-04-26 04:09 51.12062 -11.28690 36265 ft 440 kts 265°
2026-04-26 04:10 51.11895 -11.38418 36262 ft 440 kts 265°
2026-04-26 04:10 51.11721 -11.48154 36267 ft 440 kts 264°
2026-04-26 04:11 51.11538 -11.57934 36264 ft 443 kts 264°
2026-04-26 04:11 51.11348 -11.67738 36265 ft 443 kts 264°
2026-04-26 04:12 51.11150 -11.77539 36262 ft 443 kts 264°
2026-04-26 04:12 51.10943 -11.87341 36260 ft 443 kts 264°
2026-04-26 04:13 51.10727 -11.97140 36262 ft 444 kts 264°
2026-04-26 04:13 51.10503 -12.06982 36259 ft 446 kts 264°
2026-04-26 04:14 51.10269 -12.16843 36262 ft 446 kts 264°
2026-04-26 04:14 51.10027 -12.26697 36260 ft 446 kts 264°
2026-04-26 04:15 51.09777 -12.36558 36257 ft 446 kts 264°
2026-04-26 04:15 51.09518 -12.46416 36260 ft 447 kts 264°
2026-04-26 04:16 51.09250 -12.56313 36254 ft 448 kts 264°
2026-04-26 04:16 51.08975 -12.66222 36255 ft 448 kts 264°
2026-04-26 04:17 51.08691 -12.76127 36257 ft 448 kts 264°
2026-04-26 04:17 51.08397 -12.86030 36255 ft 448 kts 264°
2026-04-26 04:18 51.08094 -12.95937 36253 ft 449 kts 264°
2026-04-26 04:18 51.07783 -13.05880 36260 ft 450 kts 264°
2026-04-26 04:19 51.07465 -13.15818 36250 ft 450 kts 265°
2026-04-26 04:19 51.07137 -13.25741 36244 ft 449 kts 265°
2026-04-26 04:20 51.06802 -13.35664 36254 ft 449 kts 264°
2026-04-26 04:20 51.06456 -13.45595 36243 ft 450 kts 265°
2026-04-26 04:21 51.06102 -13.55541 36242 ft 451 kts 265°
2026-04-26 04:21 51.05740 -13.65490 36250 ft 451 kts 265°
2026-04-26 04:22 51.05369 -13.75438 36241 ft 451 kts 265°
2026-04-26 04:22 51.04991 -13.85379 36255 ft 451 kts 265°
2026-04-26 04:23 51.04601 -13.95355 36243 ft 453 kts 265°
2026-04-26 04:23 51.04204 -14.05350 36241 ft 453 kts 265°
2026-04-26 04:24 51.03797 -14.15349 36235 ft 454 kts 265°
2026-04-26 04:24 51.03381 -14.25348 36235 ft 454 kts 264°
2026-04-26 04:25 51.02956 -14.35346 36240 ft 454 kts 265°
2026-04-26 04:25 51.02526 -14.45286 36239 ft 455 kts 265°
2026-04-26 04:26 51.02083 -14.55317 36238 ft 455 kts 265°
2026-04-26 04:26 51.01631 -14.65332 36238 ft 455 kts 265°
2026-04-26 04:27 51.01172 -14.75358 36238 ft 455 kts 265°
2026-04-26 04:27 51.00704 -14.85372 36238 ft 455 kts 264°
2026-04-26 04:28 51.00311 -14.95392 36303 ft 456 kts 270°
2026-04-26 04:28 51.00558 -15.00414 36416 ft 457 kts 278°
2026-04-26 04:28 51.01283 -15.05321 36532 ft 458 kts 285°
2026-04-26 04:28 51.02239 -15.10146 36665 ft 458 kts 287°
2026-04-26 04:29 51.03278 -15.14929 36793 ft 458 kts 288°
2026-04-26 04:29 51.04355 -15.19687 36924 ft 457 kts 288°
2026-04-26 04:29 51.05443 -15.24432 37054 ft 457 kts 288°
2026-04-26 04:29 51.06527 -15.29174 37207 ft 456 kts 288°
2026-04-26 04:30 51.07603 -15.33925 37231 ft 457 kts 288°
2026-04-26 04:30 51.09732 -15.43443 37233 ft 455 kts 288°
2026-04-26 04:31 51.11830 -15.52935 37231 ft 454 kts 288°
2026-04-26 04:31 51.13904 -15.62376 37230 ft 455 kts 288°
2026-04-26 04:32 51.15983 -15.71882 37229 ft 454 kts 288°
2026-04-26 04:32 51.18054 -15.81392 37224 ft 454 kts 288°
2026-04-26 04:33 51.20118 -15.90914 37232 ft 455 kts 288°
2026-04-26 04:33 51.22171 -16.00423 37227 ft 452 kts 288°
2026-04-26 04:34 51.24209 -16.09905 37223 ft 451 kts 288°
2026-04-26 04:34 51.26222 -16.19322 37221 ft 451 kts 288°
2026-04-26 04:35 51.28246 -16.28824 37225 ft 451 kts 288°
2026-04-26 04:35 51.30261 -16.38331 37219 ft 451 kts 288°
2026-04-26 04:36 51.32266 -16.47839 37216 ft 451 kts 288°
2026-04-26 04:36 51.34259 -16.57336 37216 ft 450 kts 288°
2026-04-26 04:37 51.36241 -16.66823 37216 ft 449 kts 288°
2026-04-26 04:37 51.38210 -16.76292 37215 ft 448 kts 288°
2026-04-26 04:38 51.40168 -16.85761 37214 ft 448 kts 288°
2026-04-26 04:38 51.42107 -16.95177 37210 ft 448 kts 288°
2026-04-26 04:39 51.44053 -17.04665 37210 ft 448 kts 287°
2026-04-26 04:39 51.45986 -17.14151 37211 ft 447 kts 287°
2026-04-26 04:40 51.47909 -17.23623 37209 ft 447 kts 287°
2026-04-26 04:40 51.49825 -17.33104 37206 ft 446 kts 287°
2026-04-26 04:41 51.51731 -17.42576 37208 ft 446 kts 287°
2026-04-26 04:41 51.53626 -17.52051 37209 ft 445 kts 287°
2026-04-26 04:42 51.55515 -17.61536 37204 ft 446 kts 287°
2026-04-26 04:42 51.57393 -17.71024 37200 ft 445 kts 287°
2026-04-26 04:43 51.59265 -17.80517 37199 ft 445 kts 287°
2026-04-26 04:43 51.61107 -17.89904 37195 ft 442 kts 287°
2026-04-26 04:44 51.62948 -17.99338 37200 ft 442 kts 287°
2026-04-26 04:44 51.64778 -18.08755 37199 ft 440 kts 287°
2026-04-26 04:45 51.66598 -18.18165 37197 ft 440 kts 287°
2026-04-26 04:45 51.68405 -18.27561 37197 ft 439 kts 287°
2026-04-26 04:46 51.70202 -18.36950 37198 ft 438 kts 287°
2026-04-26 04:46 51.71992 -18.46343 37198 ft 438 kts 287°
2026-04-26 04:47 51.73485 -18.54218 37200 ft 438 kts 287°
2026-04-26 04:47 51.75248 -18.63559 37193 ft 438 kts 286°
2026-04-26 04:48 51.77896 -18.77662 37202 ft 437 kts 286°
2026-04-26 04:48 51.79647 -18.87060 37202 ft 436 kts 286°
2026-04-26 04:49 51.81384 -18.96434 37193 ft 435 kts 286°
2026-04-26 04:49 51.83114 -19.05811 37205 ft 435 kts 286°
2026-04-26 04:50 51.84837 -19.15194 37190 ft 435 kts 286°
2026-04-26 04:50 51.86552 -19.24584 37199 ft 435 kts 286°
2026-04-26 04:51 51.88259 -19.33980 37205 ft 435 kts 285°
2026-04-26 04:51 51.89962 -19.43395 37195 ft 435 kts 285°
2026-04-26 04:52 51.91648 -19.52782 37194 ft 434 kts 285°
2026-04-26 04:52 51.93328 -19.62174 37199 ft 434 kts 285°
2026-04-26 04:53 51.95003 -19.71567 37198 ft 434 kts 285°
2026-04-26 04:53 51.96666 -19.80963 37198 ft 434 kts 285°
2026-04-26 04:54 51.98309 -19.90302 37197 ft 434 kts 285°
2026-04-26 04:54 51.99958 -19.99709 37188 ft 433 kts 285°
2026-04-26 04:55 52.01452 -20.09164 37206 ft 432 kts 283°
2026-04-26 04:55 52.02762 -20.18658 37190 ft 430 kts 282°
2026-04-26 04:56 52.04068 -20.28131 37192 ft 430 kts 282°
2026-04-26 04:56 52.05399 -20.37599 37194 ft 430 kts 282°
2026-04-26 04:57 52.06736 -20.47064 37197 ft 430 kts 282°
2026-04-26 04:57 52.08069 -20.56539 37198 ft 430 kts 282°
2026-04-26 04:58 52.09395 -20.66033 37189 ft 430 kts 282°
2026-04-26 04:58 52.10712 -20.75521 37186 ft 430 kts 282°
2026-04-26 04:59 52.12010 -20.84946 37194 ft 430 kts 282°
2026-04-26 04:59 52.13309 -20.94444 37183 ft 429 kts 282°
2026-04-26 05:00 52.14599 -21.03919 37186 ft 428 kts 282°
2026-04-26 05:00 52.15879 -21.13395 37178 ft 428 kts 282°
2026-04-26 05:01 52.17149 -21.22863 37189 ft 427 kts 282°
2026-04-26 05:01 52.18413 -21.32337 37184 ft 428 kts 282°
2026-04-26 05:02 52.19669 -21.41813 37183 ft 428 kts 282°
2026-04-26 05:02 52.20918 -21.51295 37183 ft 428 kts 281°
2026-04-26 05:03 52.22157 -21.60781 37183 ft 428 kts 281°
2026-04-26 05:03 52.23391 -21.70279 37192 ft 428 kts 281°
2026-04-26 05:04 52.24615 -21.79769 37178 ft 427 kts 281°
2026-04-26 05:04 52.25831 -21.89266 37180 ft 427 kts 281°
2026-04-26 05:05 52.27038 -21.98779 37185 ft 428 kts 281°
2026-04-26 05:05 52.28234 -22.08228 37177 ft 427 kts 281°
2026-04-26 05:06 52.29429 -22.17740 37172 ft 428 kts 281°
2026-04-26 05:06 52.30615 -22.27256 37171 ft 428 kts 281°
2026-04-26 05:07 52.31795 -22.36791 37167 ft 428 kts 281°
2026-04-26 05:07 52.32968 -22.46339 37168 ft 428 kts 281°
2026-04-26 05:08 52.34132 -22.55882 37168 ft 428 kts 280°
2026-04-26 05:08 52.35288 -22.65421 37165 ft 428 kts 280°
2026-04-26 05:09 52.36437 -22.74969 37165 ft 428 kts 280°
2026-04-26 05:09 52.37578 -22.84525 37164 ft 428 kts 280°
2026-04-26 05:10 52.38709 -22.94079 37166 ft 427 kts 280°
2026-04-26 05:10 52.39833 -23.03638 37165 ft 428 kts 280°
2026-04-26 05:11 52.40951 -23.13197 37166 ft 427 kts 280°
2026-04-26 05:11 52.42060 -23.22763 37166 ft 427 kts 280°
2026-04-26 05:12 52.43160 -23.32333 37166 ft 427 kts 279°
2026-04-26 05:12 52.44253 -23.41902 37160 ft 427 kts 279°
2026-04-26 05:13 52.45340 -23.51474 37160 ft 427 kts 279°
2026-04-26 05:13 52.46409 -23.60973 37162 ft 426 kts 279°
2026-04-26 05:14 52.47473 -23.70511 37161 ft 425 kts 279°
2026-04-26 05:14 52.48529 -23.80057 37156 ft 425 kts 279°
2026-04-26 05:15 52.49580 -23.89610 37157 ft 425 kts 279°
2026-04-26 05:15 52.50622 -23.99161 37153 ft 425 kts 279°
2026-04-26 05:16 52.51657 -24.08723 37153 ft 425 kts 279°
2026-04-26 05:16 52.52682 -24.18285 37156 ft 424 kts 279°
2026-04-26 05:17 52.53698 -24.27816 37148 ft 423 kts 279°
2026-04-26 05:17 52.54706 -24.37346 37149 ft 423 kts 279°
2026-04-26 05:18 52.55706 -24.46882 37152 ft 423 kts 278°
2026-04-26 05:18 52.56694 -24.56409 37141 ft 423 kts 278°
2026-04-26 05:19 52.57677 -24.65957 37139 ft 424 kts 278°
2026-04-26 05:19 52.58646 -24.75441 37136 ft 423 kts 278°
2026-04-26 05:20 52.59615 -24.84988 37137 ft 423 kts 278°
2026-04-26 05:20 52.60574 -24.94529 37146 ft 423 kts 278°
2026-04-26 05:21 52.61524 -25.04064 37129 ft 422 kts 278°
2026-04-26 05:21 52.62466 -25.13604 37128 ft 422 kts 278°
2026-04-26 05:22 52.63402 -25.23144 37117 ft 422 kts 278°
2026-04-26 05:22 52.64330 -25.32698 37125 ft 422 kts 278°
2026-04-26 05:23 52.65250 -25.42249 37119 ft 422 kts 278°
2026-04-26 05:23 52.66163 -25.51811 37113 ft 423 kts 277°
2026-04-26 05:24 52.67069 -25.61377 37113 ft 423 kts 277°
2026-04-26 05:24 52.67966 -25.70944 37100 ft 422 kts 277°
2026-04-26 05:25 52.68854 -25.80509 37106 ft 422 kts 277°
2026-04-26 05:25 52.69735 -25.90071 37107 ft 422 kts 277°
2026-04-26 05:26 52.70603 -25.99575 37096 ft 422 kts 277°
2026-04-26 05:26 52.71468 -26.09153 37091 ft 423 kts 277°
2026-04-26 05:27 52.72328 -26.18747 37090 ft 422 kts 277°
2026-04-26 05:27 52.73179 -26.28340 37085 ft 423 kts 277°
2026-04-26 05:28 52.74023 -26.37937 37098 ft 423 kts 277°
2026-04-26 05:28 52.74857 -26.47532 37097 ft 423 kts 277°
2026-04-26 05:29 52.75685 -26.57145 37107 ft 422 kts 276°
2026-04-26 05:29 52.76506 -26.66741 37086 ft 422 kts 276°
2026-04-26 05:30 52.77320 -26.76350 37083 ft 422 kts 276°
2026-04-26 05:30 52.78126 -26.85959 37085 ft 422 kts 276°
2026-04-26 05:31 52.78920 -26.95565 37073 ft 422 kts 276°
2026-04-26 05:31 52.79707 -27.05176 37073 ft 422 kts 276°
2026-04-26 05:32 52.80485 -27.14783 37071 ft 422 kts 276°
2026-04-26 05:32 52.81257 -27.24398 37057 ft 423 kts 276°
2026-04-26 05:33 52.81895 -27.32418 37058 ft 424 kts 276°
2026-04-26 05:33 52.82654 -27.42075 37056 ft 424 kts 276°
2026-04-26 05:34 52.83409 -27.51733 37071 ft 423 kts 276°
2026-04-26 05:34 52.84277 -27.62968 37053 ft 424 kts 276°
2026-04-26 05:35 52.84895 -27.71076 37053 ft 424 kts 275°
2026-04-26 05:35 52.85625 -27.80752 37047 ft 424 kts 275°
2026-04-26 05:36 52.86348 -27.90444 37055 ft 425 kts 275°
2026-04-26 05:36 52.87066 -28.00158 37042 ft 425 kts 275°
2026-04-26 05:37 52.87774 -28.09881 37051 ft 425 kts 275°
2026-04-26 05:37 52.88471 -28.19542 37031 ft 425 kts 275°
2026-04-26 05:38 52.89165 -28.29265 37030 ft 425 kts 275°
2026-04-26 05:38 52.89849 -28.38984 37031 ft 425 kts 275°
2026-04-26 05:39 52.90525 -28.48709 37023 ft 426 kts 274°
2026-04-26 05:39 52.91196 -28.58460 37018 ft 426 kts 274°
2026-04-26 05:40 52.91859 -28.68232 37012 ft 426 kts 274°
2026-04-26 05:40 52.92512 -28.77990 37012 ft 426 kts 274°
2026-04-26 05:41 52.93159 -28.87757 37012 ft 426 kts 274°
2026-04-26 05:41 52.93797 -28.97523 36999 ft 426 kts 274°
2026-04-26 05:42 52.94429 -29.07293 37021 ft 426 kts 273°
2026-04-26 05:42 52.95053 -29.17083 36998 ft 427 kts 273°
2026-04-26 05:43 52.95666 -29.26836 36982 ft 428 kts 273°
2026-04-26 05:43 52.96275 -29.36643 36982 ft 428 kts 273°
2026-04-26 05:44 52.96877 -29.46456 36974 ft 428 kts 273°
2026-04-26 05:44 52.97468 -29.56273 36973 ft 428 kts 273°
2026-04-26 05:45 52.98052 -29.66096 36966 ft 428 kts 273°
2026-04-26 05:45 52.98630 -29.75925 36955 ft 428 kts 272°
2026-04-26 05:46 52.99199 -29.85763 36955 ft 428 kts 272°
2026-04-26 05:46 52.99761 -29.95613 36941 ft 428 kts 272°
2026-04-26 05:47 53.00288 -30.05467 36939 ft 428 kts 271°
2026-04-26 05:47 53.00685 -30.15321 36938 ft 428 kts 270°
2026-04-26 05:48 53.01051 -30.25175 36924 ft 428 kts 270°
2026-04-26 05:48 53.01426 -30.35037 36921 ft 429 kts 270°
2026-04-26 05:49 53.01996 -30.49892 36908 ft 430 kts 270°
2026-04-26 05:50 53.02371 -30.59807 36909 ft 430 kts 270°
2026-04-26 05:50 53.02731 -30.69650 36891 ft 430 kts 270°
2026-04-26 05:51 53.03086 -30.79557 36914 ft 430 kts 270°
2026-04-26 05:51 53.03431 -30.89485 36892 ft 430 kts 270°
2026-04-26 05:52 53.03768 -30.99408 36873 ft 430 kts 269°
2026-04-26 05:52 53.04099 -31.09342 36872 ft 430 kts 269°
2026-04-26 05:53 53.04421 -31.19274 36858 ft 430 kts 269°
2026-04-26 05:53 53.04736 -31.29211 36859 ft 430 kts 269°
2026-04-26 05:54 53.05040 -31.39139 36855 ft 430 kts 268°
2026-04-26 05:54 53.05336 -31.49079 36837 ft 430 kts 268°
2026-04-26 05:55 53.05624 -31.59003 36835 ft 430 kts 268°
2026-04-26 05:55 53.05905 -31.68911 36840 ft 429 kts 268°
2026-04-26 05:56 53.06177 -31.78835 36821 ft 430 kts 268°
2026-04-26 05:56 53.06441 -31.88768 36820 ft 430 kts 268°
2026-04-26 05:57 53.06696 -31.98717 36805 ft 430 kts 268°
2026-04-26 05:57 53.06943 -32.08654 36801 ft 430 kts 267°
2026-04-26 05:58 53.07181 -32.18585 36795 ft 430 kts 267°
2026-04-26 05:58 53.07410 -32.28546 36786 ft 433 kts 267°
2026-04-26 05:59 53.07634 -32.38553 36781 ft 433 kts 266°
2026-04-26 05:59 53.07849 -32.48564 36781 ft 433 kts 266°
2026-04-26 06:00 53.08056 -32.58509 36777 ft 433 kts 266°
2026-04-26 06:00 53.08254 -32.68533 36771 ft 434 kts 266°
2026-04-26 06:01 53.08445 -32.78564 36760 ft 434 kts 266°
2026-04-26 06:01 53.08627 -32.88596 36763 ft 434 kts 266°
2026-04-26 06:02 53.08801 -32.98637 36749 ft 434 kts 266°
2026-04-26 06:02 53.08966 -33.08673 36746 ft 434 kts 266°
2026-04-26 06:03 53.09125 -33.18698 36736 ft 433 kts 266°
2026-04-26 06:03 53.09273 -33.28732 36737 ft 434 kts 266°
2026-04-26 06:04 53.09411 -33.38758 36733 ft 433 kts 266°
2026-04-26 06:04 53.09541 -33.48797 36725 ft 436 kts 265°
2026-04-26 06:05 53.09662 -33.58918 36720 ft 438 kts 265°
2026-04-26 06:05 53.09779 -33.69060 36709 ft 439 kts 265°
2026-04-26 06:06 53.09888 -33.79214 36712 ft 439 kts 265°
2026-04-26 06:06 53.09987 -33.89357 36689 ft 438 kts 265°
2026-04-26 06:07 53.10077 -33.99490 36687 ft 438 kts 265°
2026-04-26 06:07 53.10159 -34.09633 36694 ft 439 kts 265°
2026-04-26 06:08 53.10232 -34.19807 36677 ft 440 kts 265°
2026-04-26 06:08 53.10297 -34.29985 36669 ft 440 kts 265°
2026-04-26 06:09 53.10350 -34.40168 36662 ft 441 kts 265°
2026-04-26 06:09 53.10395 -34.50415 36658 ft 443 kts 264°
2026-04-26 06:10 53.10434 -34.60684 36657 ft 444 kts 264°
2026-04-26 06:10 53.10464 -34.70878 36645 ft 443 kts 264°
2026-04-26 06:11 53.10485 -34.81150 36646 ft 443 kts 264°
2026-04-26 06:11 53.10498 -34.91419 36629 ft 443 kts 264°
2026-04-26 06:12 53.10501 -35.01677 36630 ft 443 kts 264°
2026-04-26 06:12 53.10496 -35.11938 36634 ft 443 kts 264°
2026-04-26 06:13 53.10480 -35.22188 36643 ft 443 kts 264°
2026-04-26 06:13 53.10454 -35.32478 36615 ft 447 kts 263°
2026-04-26 06:14 53.10420 -35.42847 36606 ft 449 kts 263°
2026-04-26 06:14 53.10380 -35.53229 36606 ft 449 kts 263°
2026-04-26 06:15 53.10331 -35.63610 36591 ft 448 kts 263°
2026-04-26 06:15 53.10271 -35.73930 36592 ft 448 kts 263°
2026-04-26 06:16 53.10203 -35.84371 36593 ft 448 kts 263°
2026-04-26 06:16 53.10125 -35.94682 36580 ft 450 kts 262°
2026-04-26 06:17 53.10036 -36.05104 36579 ft 451 kts 262°
2026-04-26 06:17 53.09940 -36.15542 36572 ft 451 kts 262°
2026-04-26 06:18 53.09835 -36.25975 36570 ft 451 kts 262°
2026-04-26 06:18 53.09720 -36.36410 36565 ft 451 kts 262°
2026-04-26 06:19 53.09596 -36.46830 36559 ft 450 kts 262°
2026-04-26 06:19 53.09460 -36.57260 36564 ft 452 kts 262°
2026-04-26 06:20 53.09341 -36.65980 36546 ft 454 kts 262°
2026-04-26 06:20 53.09192 -36.76491 36544 ft 454 kts 262°
2026-04-26 06:21 53.09034 -36.86991 36555 ft 454 kts 262°
2026-04-26 06:21 53.08866 -36.97488 36563 ft 454 kts 262°
2026-04-26 06:22 53.08685 -37.08009 36545 ft 456 kts 262°
2026-04-26 06:22 53.08496 -37.18566 36540 ft 458 kts 262°
2026-04-26 06:23 53.08297 -37.29160 36537 ft 459 kts 261°
2026-04-26 06:23 53.08088 -37.39777 36523 ft 459 kts 261°
2026-04-26 06:24 53.07871 -37.50397 36526 ft 459 kts 261°
2026-04-26 06:24 53.07643 -37.61011 36525 ft 459 kts 261°
2026-04-26 06:25 53.07407 -37.71622 36510 ft 459 kts 261°
2026-04-26 06:25 53.07160 -37.82235 36506 ft 460 kts 261°
2026-04-26 06:26 53.06905 -37.92879 36513 ft 462 kts 261°
2026-04-26 06:26 53.06636 -38.03575 36509 ft 464 kts 261°
2026-04-26 06:27 53.06358 -38.14292 36497 ft 464 kts 261°
2026-04-26 06:27 53.06071 -38.25012 36496 ft 464 kts 261°
2026-04-26 06:28 53.05776 -38.35657 36498 ft 464 kts 261°
2026-04-26 06:28 53.05469 -38.46375 36484 ft 465 kts 261°
2026-04-26 06:29 53.05150 -38.57132 36484 ft 466 kts 261°
2026-04-26 06:29 53.04823 -38.67878 36484 ft 466 kts 261°
2026-04-26 06:30 53.04487 -38.78630 36486 ft 466 kts 261°
2026-04-26 06:30 53.04139 -38.89406 36473 ft 468 kts 261°
2026-04-26 06:31 53.03782 -39.00192 36474 ft 468 kts 261°
2026-04-26 06:31 53.03415 -39.10983 36462 ft 468 kts 261°
2026-04-26 06:32 53.03037 -39.21772 36461 ft 468 kts 261°
2026-04-26 06:32 53.02650 -39.32556 36462 ft 468 kts 261°
2026-04-26 06:33 53.02252 -39.43336 36462 ft 468 kts 261°
2026-04-26 06:33 53.01846 -39.54119 36451 ft 468 kts 261°
2026-04-26 06:34 53.01429 -39.64900 36472 ft 468 kts 261°
2026-04-26 06:34 53.00998 -39.75732 36454 ft 472 kts 261°
2026-04-26 06:35 53.00559 -39.86617 36444 ft 472 kts 261°
2026-04-26 06:35 53.00111 -39.97495 36447 ft 472 kts 261°
2026-04-26 06:36 52.99604 -40.08285 36451 ft 472 kts 259°
2026-04-26 06:36 52.98959 -40.19112 36441 ft 471 kts 259°
2026-04-26 06:37 52.98296 -40.29935 36438 ft 473 kts 259°
2026-04-26 06:37 52.97638 -40.40805 36440 ft 474 kts 259°
2026-04-26 06:38 52.96984 -40.51673 36440 ft 474 kts 259°
2026-04-26 06:38 52.96322 -40.62558 36438 ft 475 kts 259°
2026-04-26 06:39 52.95644 -40.73484 36435 ft 476 kts 259°
2026-04-26 06:39 52.94958 -40.84417 36451 ft 477 kts 259°
2026-04-26 06:40 52.94257 -40.95382 36435 ft 479 kts 259°
2026-04-26 06:40 52.93546 -41.06353 36439 ft 479 kts 259°
2026-04-26 06:41 52.92824 -41.17325 36439 ft 479 kts 259°
2026-04-26 06:41 52.92093 -41.28293 36437 ft 479 kts 259°
2026-04-26 06:42 52.91351 -41.39265 36438 ft 479 kts 259°
2026-04-26 06:42 52.90596 -41.50228 36431 ft 480 kts 259°
2026-04-26 06:43 52.89833 -41.61225 36445 ft 481 kts 259°
2026-04-26 06:43 52.89056 -41.72242 36436 ft 481 kts 259°
2026-04-26 06:44 52.88270 -41.83243 36447 ft 481 kts 259°
2026-04-26 06:44 52.87472 -41.94262 36446 ft 482 kts 259°
2026-04-26 06:45 52.86666 -42.05264 36444 ft 481 kts 259°
2026-04-26 06:45 52.85849 -42.16261 36445 ft 482 kts 259°
2026-04-26 06:46 52.85021 -42.27274 36440 ft 482 kts 259°
2026-04-26 06:46 52.84188 -42.38205 36443 ft 482 kts 259°
2026-04-26 06:47 52.83337 -42.49217 36442 ft 483 kts 259°
2026-04-26 06:47 52.82477 -42.60228 36469 ft 483 kts 259°
2026-04-26 06:48 52.81605 -42.71246 36442 ft 484 kts 259°
2026-04-26 06:48 52.80723 -42.82270 36443 ft 484 kts 259°
2026-04-26 06:49 52.79831 -42.93291 36445 ft 484 kts 259°
2026-04-26 06:49 52.78928 -43.04301 36446 ft 484 kts 259°
2026-04-26 06:50 52.78016 -43.15307 36442 ft 484 kts 259°
2026-04-26 06:50 52.77093 -43.26320 36444 ft 484 kts 259°
2026-04-26 06:51 52.76154 -43.37344 36444 ft 486 kts 259°
2026-04-26 06:51 52.74731 -43.53908 36448 ft 486 kts 259°
2026-04-26 06:52 52.73769 -43.64946 36445 ft 486 kts 259°
2026-04-26 06:52 52.72795 -43.75983 36448 ft 486 kts 259°
2026-04-26 06:53 52.71811 -43.87012 36453 ft 486 kts 259°
2026-04-26 06:53 52.70818 -43.98037 36451 ft 486 kts 259°
2026-04-26 06:54 52.69814 -44.09062 36448 ft 486 kts 259°
2026-04-26 06:54 52.68799 -44.20086 36450 ft 487 kts 259°
2026-04-26 06:55 52.67770 -44.31126 36452 ft 488 kts 259°
2026-04-26 06:55 52.66730 -44.42181 36464 ft 489 kts 259°
2026-04-26 06:56 52.65680 -44.53245 36453 ft 489 kts 259°
2026-04-26 06:56 52.64619 -44.64301 36453 ft 489 kts 259°
2026-04-26 06:57 52.63547 -44.75347 36453 ft 489 kts 259°
2026-04-26 06:57 52.62466 -44.86379 36453 ft 489 kts 259°
2026-04-26 06:58 52.61375 -44.97417 36457 ft 488 kts 259°
2026-04-26 06:58 52.60280 -45.08380 36456 ft 488 kts 259°
2026-04-26 06:59 52.59168 -45.19402 36456 ft 488 kts 258°
2026-04-26 06:59 52.58046 -45.30409 36463 ft 488 kts 258°
2026-04-26 07:00 52.56914 -45.41419 36464 ft 488 kts 258°
2026-04-26 07:00 52.55772 -45.52427 36464 ft 489 kts 258°
2026-04-26 07:01 52.54618 -45.63430 36466 ft 489 kts 258°
2026-04-26 07:01 52.53456 -45.74434 36463 ft 489 kts 258°
2026-04-26 07:02 52.52284 -45.85432 36462 ft 489 kts 258°
2026-04-26 07:02 52.51098 -45.96420 36466 ft 489 kts 258°
2026-04-26 07:03 52.49898 -46.07433 36464 ft 490 kts 258°
2026-04-26 07:03 52.48689 -46.18453 36471 ft 491 kts 258°
2026-04-26 07:04 52.47477 -46.29410 36468 ft 491 kts 258°
2026-04-26 07:04 52.46244 -46.40443 36470 ft 492 kts 258°
2026-04-26 07:05 52.45003 -46.51459 36467 ft 491 kts 258°
2026-04-26 07:05 52.43754 -46.62468 36472 ft 491 kts 258°
2026-04-26 07:06 52.42697 -46.71688 36485 ft 492 kts 258°
2026-04-26 07:06 52.41435 -46.82609 36461 ft 491 kts 258°
2026-04-26 07:07 52.40151 -46.93621 36468 ft 492 kts 258°
2026-04-26 07:07 52.38858 -47.04634 36470 ft 493 kts 258°
2026-04-26 07:08 52.37553 -47.15644 36483 ft 493 kts 258°
2026-04-26 07:08 52.36237 -47.26655 36477 ft 493 kts 258°
2026-04-26 07:09 52.34913 -47.37647 36476 ft 493 kts 258°
2026-04-26 07:09 52.33579 -47.48629 36475 ft 492 kts 258°
2026-04-26 07:11 52.30197 -47.76069 36473 ft 492 kts 258°
2026-04-26 07:11 52.28828 -47.87033 36490 ft 493 kts 258°
2026-04-26 07:12 52.27444 -47.98019 36479 ft 494 kts 258°
2026-04-26 07:12 52.26060 -48.08914 36479 ft 494 kts 258°
2026-04-26 07:13 52.24653 -48.19894 36485 ft 493 kts 258°
2026-04-26 07:13 52.23239 -48.30852 36482 ft 493 kts 258°
2026-04-26 07:14 52.21816 -48.41800 36482 ft 493 kts 258°
2026-04-26 07:14 52.20382 -48.52746 36488 ft 494 kts 258°
2026-04-26 07:15 52.18937 -48.63680 36483 ft 494 kts 258°
2026-04-26 07:15 52.17478 -48.74641 36493 ft 495 kts 258°
2026-04-26 07:16 52.16009 -48.85600 36495 ft 495 kts 258°
2026-04-26 07:16 52.14528 -48.96562 36495 ft 495 kts 258°
2026-04-26 07:17 52.13039 -49.07506 36490 ft 495 kts 258°
2026-04-26 07:17 52.11540 -49.18443 36494 ft 495 kts 258°
2026-04-26 07:18 52.10027 -49.29381 36492 ft 495 kts 258°
2026-04-26 07:18 52.08508 -49.40308 36501 ft 495 kts 258°
2026-04-26 07:19 52.06977 -49.51222 36501 ft 496 kts 258°
2026-04-26 07:19 52.05435 -49.62142 36502 ft 496 kts 258°
2026-04-26 07:20 52.03895 -49.72972 36499 ft 495 kts 258°
2026-04-26 07:20 52.02334 -49.83872 36509 ft 495 kts 258°
2026-04-26 07:21 52.00764 -49.94767 36505 ft 496 kts 258°
2026-04-26 07:21 51.98690 -50.05440 36505 ft 496 kts 251°
2026-04-26 07:22 51.96225 -50.15909 36513 ft 497 kts 250°
2026-04-26 07:22 51.93680 -50.26340 36513 ft 497 kts 250°
2026-04-26 07:23 51.91134 -50.36745 36495 ft 497 kts 250°
2026-04-26 07:23 51.88587 -50.47156 36511 ft 498 kts 250°
2026-04-26 07:24 51.86030 -50.57577 36517 ft 498 kts 250°
2026-04-26 07:24 51.83465 -50.67986 36519 ft 498 kts 250°
2026-04-26 07:25 51.80887 -50.78390 36520 ft 499 kts 249°
2026-04-26 07:25 51.78301 -50.88786 36521 ft 498 kts 249°
2026-04-26 07:26 51.75708 -50.99165 36521 ft 499 kts 249°
2026-04-26 07:26 51.73105 -51.09533 36527 ft 498 kts 249°
2026-04-26 07:27 51.70494 -51.19877 36529 ft 498 kts 249°
2026-04-26 07:27 51.67875 -51.30207 36528 ft 497 kts 249°
2026-04-26 07:28 51.65249 -51.40515 36528 ft 498 kts 249°
2026-04-26 07:28 51.62613 -51.50827 36535 ft 498 kts 249°
2026-04-26 07:29 51.59967 -51.61124 36535 ft 498 kts 249°
2026-04-26 07:29 51.57312 -51.71410 36534 ft 498 kts 249°
2026-04-26 07:30 51.54647 -51.81685 36537 ft 498 kts 249°
2026-04-26 07:30 51.51975 -51.91946 36545 ft 498 kts 249°
2026-04-26 07:31 51.49294 -52.02184 36548 ft 498 kts 249°
2026-04-26 07:31 51.46607 -52.12409 36548 ft 497 kts 249°
2026-04-26 07:32 51.43916 -52.22604 36547 ft 497 kts 249°
2026-04-26 07:32 51.41215 -52.32793 36559 ft 497 kts 249°
2026-04-26 07:33 51.38521 -52.42899 36558 ft 497 kts 249°
2026-04-26 07:33 51.35803 -52.53054 36555 ft 496 kts 249°
2026-04-26 07:34 51.33081 -52.63183 36562 ft 496 kts 249°
2026-04-26 07:34 51.30353 -52.73290 36579 ft 496 kts 249°
2026-04-26 07:35 51.27614 -52.83397 36580 ft 496 kts 249°
2026-04-26 07:35 51.24863 -52.93498 36578 ft 496 kts 249°
2026-04-26 07:36 51.22108 -53.03562 36579 ft 495 kts 249°
2026-04-26 07:36 51.19350 -53.13606 36600 ft 494 kts 249°
2026-04-26 07:37 51.16468 -53.23570 36727 ft 497 kts 243°
2026-04-26 07:37 51.14770 -53.28369 36867 ft 497 kts 242°
2026-04-26 07:37 51.13028 -53.33121 36999 ft 497 kts 242°
2026-04-26 07:37 51.11257 -53.37847 37153 ft 497 kts 242°
2026-04-26 07:38 51.09470 -53.42563 37266 ft 497 kts 241°
2026-04-26 07:38 51.07682 -53.47262 37418 ft 497 kts 241°
2026-04-26 07:38 51.05891 -53.51965 37549 ft 497 kts 241°
2026-04-26 07:39 51.02302 -53.61389 37600 ft 498 kts 241°
2026-04-26 07:39 50.98723 -53.70779 37625 ft 498 kts 242°
2026-04-26 07:40 50.95129 -53.80188 37630 ft 499 kts 242°
2026-04-26 07:40 50.91515 -53.89612 37636 ft 500 kts 242°
2026-04-26 07:41 50.87890 -53.99024 37635 ft 501 kts 242°
2026-04-26 07:41 50.84253 -54.08430 37642 ft 501 kts 242°
2026-04-26 07:42 50.80611 -54.17817 37660 ft 501 kts 242°
2026-04-26 07:42 50.76950 -54.27224 37665 ft 503 kts 242°
2026-04-26 07:43 50.73272 -54.36637 37664 ft 504 kts 242°
2026-04-26 07:43 50.69585 -54.46040 37670 ft 504 kts 241°
2026-04-26 07:44 50.65893 -54.55417 37676 ft 504 kts 241°
2026-04-26 07:44 50.62175 -54.64832 37676 ft 506 kts 241°
2026-04-26 07:45 50.58447 -54.74234 37692 ft 506 kts 240°
2026-04-26 07:45 50.54738 -54.83549 37698 ft 506 kts 241°
2026-04-26 07:46 50.50996 -54.92922 37698 ft 507 kts 241°
2026-04-26 07:46 50.47242 -55.02289 37703 ft 506 kts 240°
2026-04-26 07:47 50.43478 -55.11641 37703 ft 507 kts 241°
2026-04-26 07:47 50.39709 -55.20979 37704 ft 506 kts 241°
2026-04-26 07:48 50.35935 -55.30295 37715 ft 506 kts 240°
2026-04-26 07:48 50.32158 -55.39588 37720 ft 506 kts 240°
2026-04-26 07:49 50.28371 -55.48873 37721 ft 507 kts 240°
2026-04-26 07:49 50.24580 -55.58132 37725 ft 506 kts 240°
2026-04-26 07:50 50.19526 -55.70425 37732 ft 504 kts 239°
2026-04-26 07:50 50.15739 -55.79600 37732 ft 502 kts 239°
2026-04-26 07:51 50.11952 -55.88743 37743 ft 502 kts 239°
2026-04-26 07:51 50.08152 -55.97884 37730 ft 502 kts 239°
2026-04-26 07:52 50.04356 -56.06989 37752 ft 500 kts 239°
2026-04-26 07:52 50.00567 -56.16040 37756 ft 499 kts 239°
2026-04-26 07:53 49.96769 -56.25081 37747 ft 499 kts 239°
2026-04-26 07:53 49.92973 -56.34084 37755 ft 498 kts 239°
2026-04-26 07:54 49.89184 -56.43045 37768 ft 495 kts 239°
2026-04-26 07:54 49.85407 -56.51948 37766 ft 494 kts 239°
2026-04-26 07:55 49.81647 -56.60770 37774 ft 494 kts 239°
2026-04-26 07:55 49.77859 -56.69642 37770 ft 494 kts 239°
2026-04-26 07:56 49.74062 -56.78510 37776 ft 494 kts 239°
2026-04-26 07:56 49.70255 -56.87359 37781 ft 494 kts 239°
2026-04-26 07:57 49.66446 -56.96188 37782 ft 494 kts 239°
2026-04-26 07:57 49.62629 -57.05009 37781 ft 494 kts 238°
2026-04-26 07:58 49.58804 -57.13814 37797 ft 493 kts 238°
2026-04-26 07:58 49.54980 -57.22588 37793 ft 493 kts 238°
2026-04-26 07:59 49.51151 -57.31344 37806 ft 493 kts 238°
2026-04-26 07:59 49.47316 -57.40089 37807 ft 493 kts 238°
2026-04-26 08:00 49.43497 -57.48765 37828 ft 493 kts 238°
2026-04-26 08:00 49.39644 -57.57487 37821 ft 493 kts 238°
2026-04-26 08:01 49.35789 -57.66190 37817 ft 493 kts 238°
2026-04-26 08:01 49.31927 -57.74884 37814 ft 493 kts 238°
2026-04-26 08:02 49.28070 -57.83535 37846 ft 491 kts 237°
2026-04-26 08:02 49.24216 -57.92148 37846 ft 490 kts 237°
2026-04-26 08:03 49.20360 -58.00739 37853 ft 490 kts 237°
2026-04-26 08:03 49.16496 -58.09326 37846 ft 490 kts 238°
2026-04-26 08:04 49.12624 -58.17897 37860 ft 491 kts 238°
2026-04-26 08:04 49.08741 -58.26468 37874 ft 491 kts 238°
2026-04-26 08:05 49.04853 -58.35021 37883 ft 491 kts 238°
2026-04-26 08:05 49.00960 -58.43560 37881 ft 490 kts 238°
2026-04-26 08:06 48.97059 -58.52090 37883 ft 491 kts 238°
2026-04-26 08:06 48.93148 -58.60612 37883 ft 491 kts 237°
2026-04-26 08:07 48.89232 -58.69114 37884 ft 491 kts 237°
2026-04-26 08:07 48.85305 -58.77616 37905 ft 492 kts 237°
2026-04-26 08:08 48.81371 -58.86109 37903 ft 492 kts 237°
2026-04-26 08:08 48.77453 -58.94545 37908 ft 492 kts 237°
2026-04-26 08:09 48.73501 -59.03018 37911 ft 493 kts 237°
2026-04-26 08:09 48.69540 -59.11485 37911 ft 493 kts 237°
2026-04-26 08:10 48.65571 -59.19948 37924 ft 493 kts 237°
2026-04-26 08:10 48.61598 -59.28393 37927 ft 493 kts 237°
2026-04-26 08:11 48.57618 -59.36819 37927 ft 493 kts 237°
2026-04-26 08:11 48.53633 -59.45235 37928 ft 493 kts 237°
2026-04-26 08:12 48.49647 -59.53625 37934 ft 492 kts 237°
2026-04-26 08:12 48.45658 -59.61997 37933 ft 492 kts 237°
2026-04-26 08:13 48.41663 -59.70358 37948 ft 492 kts 237°
2026-04-26 08:13 48.37666 -59.78694 37946 ft 491 kts 237°
2026-04-26 08:14 48.33660 -59.87017 37926 ft 490 kts 237°
2026-04-26 08:14 48.29692 -59.95244 37957 ft 489 kts 237°
2026-04-26 08:15 48.25696 -60.03504 37944 ft 489 kts 237°
2026-04-26 08:15 48.21694 -60.11750 37967 ft 489 kts 237°
2026-04-26 08:16 48.17692 -60.19972 37974 ft 488 kts 237°
2026-04-26 08:16 48.13681 -60.28186 37970 ft 488 kts 236°
2026-04-26 08:17 48.09665 -60.36386 37973 ft 489 kts 236°
2026-04-26 08:17 48.05643 -60.44576 37982 ft 489 kts 237°
2026-04-26 08:18 48.01610 -60.52759 37978 ft 489 kts 237°
2026-04-26 08:18 47.97569 -60.60931 37994 ft 489 kts 237°
2026-04-26 08:19 47.93525 -60.69091 37993 ft 489 kts 237°
2026-04-26 08:19 47.89473 -60.77245 37993 ft 490 kts 237°
2026-04-26 08:20 47.85409 -60.85394 38001 ft 490 kts 237°
2026-04-26 08:20 47.81341 -60.93524 38005 ft 490 kts 237°
2026-04-26 08:21 47.77267 -61.01643 37995 ft 490 kts 236°
2026-04-26 08:21 47.73187 -61.09755 38009 ft 490 kts 236°
2026-04-26 08:22 47.69097 -61.17857 38009 ft 490 kts 236°
2026-04-26 08:22 47.65001 -61.25952 38010 ft 491 kts 236°
2026-04-26 08:23 47.60902 -61.34029 38005 ft 490 kts 236°
2026-04-26 08:23 47.56795 -61.42095 38010 ft 490 kts 236°
2026-04-26 08:24 47.52686 -61.50144 38010 ft 490 kts 236°
2026-04-26 08:24 47.48571 -61.58176 38012 ft 490 kts 236°
2026-04-26 08:25 47.44449 -61.66201 38010 ft 490 kts 236°
2026-04-26 08:25 47.40324 -61.74211 38010 ft 490 kts 236°
2026-04-26 08:26 47.36193 -61.82209 38015 ft 490 kts 236°
2026-04-26 08:26 47.32078 -61.90144 38025 ft 490 kts 236°
2026-04-26 08:27 47.27946 -61.98098 38042 ft 487 kts 236°
2026-04-26 08:27 47.23824 -62.06007 38029 ft 487 kts 236°
2026-04-26 08:28 47.19701 -62.13897 38054 ft 486 kts 235°
2026-04-26 08:28 47.15571 -62.21776 38046 ft 486 kts 236°
2026-04-26 08:29 47.11464 -62.29584 38063 ft 480 kts 236°
2026-04-26 08:29 47.07386 -62.37320 38064 ft 479 kts 236°
2026-04-26 08:30 47.03301 -62.45049 38066 ft 479 kts 236°
2026-04-26 08:30 46.99213 -62.52765 38065 ft 479 kts 236°
2026-04-26 08:31 46.95118 -62.60467 38070 ft 479 kts 236°
2026-04-26 08:31 46.91019 -62.68154 38079 ft 480 kts 236°
2026-04-26 08:32 46.86913 -62.75836 38077 ft 479 kts 236°
2026-04-26 08:32 46.82802 -62.83507 38078 ft 480 kts 236°
2026-04-26 08:33 46.78701 -62.91139 38076 ft 482 kts 236°
2026-04-26 08:33 46.74558 -62.98828 38079 ft 482 kts 236°
2026-04-26 08:34 46.70415 -63.06494 38062 ft 481 kts 236°
2026-04-26 08:34 46.66273 -63.14132 38080 ft 478 kts 235°
2026-04-26 08:35 46.62154 -63.21710 38085 ft 477 kts 235°
2026-04-26 08:35 46.58036 -63.29267 38085 ft 476 kts 235°
2026-04-26 08:36 46.53916 -63.36806 38076 ft 476 kts 235°
2026-04-26 08:36 46.50492 -63.43055 38086 ft 475 kts 235°
2026-04-26 08:37 46.46379 -63.50546 38089 ft 475 kts 235°
2026-04-26 08:37 46.42261 -63.58032 38088 ft 475 kts 235°
2026-04-26 08:38 46.38137 -63.65497 38079 ft 475 kts 235°
2026-04-26 08:38 46.34009 -63.72947 38086 ft 473 kts 235°
2026-04-26 08:39 46.29884 -63.80375 38087 ft 473 kts 235°
2026-04-26 08:39 46.25761 -63.87781 38090 ft 473 kts 235°
2026-04-26 08:40 46.21635 -63.95177 38086 ft 472 kts 235°
2026-04-26 08:40 46.17519 -64.02533 38091 ft 470 kts 235°
2026-04-26 08:41 46.13410 -64.09861 38095 ft 470 kts 235°
2026-04-26 08:41 46.09300 -64.17167 38092 ft 469 kts 235°
2026-04-26 08:42 46.05193 -64.24444 38092 ft 467 kts 235°
2026-04-26 08:42 46.01129 -64.31627 38101 ft 465 kts 235°
2026-04-26 08:43 45.97040 -64.38839 38102 ft 465 kts 235°
2026-04-26 08:43 45.92948 -64.46040 38102 ft 465 kts 235°
2026-04-26 08:44 45.88849 -64.53235 38102 ft 465 kts 235°
2026-04-26 08:44 45.84747 -64.60416 38101 ft 465 kts 235°
2026-04-26 08:45 45.80635 -64.67594 38108 ft 465 kts 235°
2026-04-26 08:45 45.76523 -64.74751 38105 ft 465 kts 235°
2026-04-26 08:46 45.72418 -64.81879 38108 ft 463 kts 235°
2026-04-26 08:46 45.68315 -64.88988 38108 ft 463 kts 235°
2026-04-26 08:47 45.64203 -64.96097 38110 ft 463 kts 235°
2026-04-26 08:47 45.60095 -65.03180 38107 ft 462 kts 235°
2026-04-26 08:48 45.55992 -65.10228 38115 ft 460 kts 235°
2026-04-26 08:48 45.51901 -65.17243 38115 ft 460 kts 235°
2026-04-26 08:49 45.47807 -65.24250 38119 ft 460 kts 235°
2026-04-26 08:49 45.43734 -65.31205 38116 ft 459 kts 235°
2026-04-26 08:50 45.39645 -65.38162 38119 ft 458 kts 235°
2026-04-26 08:50 45.35552 -65.45109 38121 ft 458 kts 235°
2026-04-26 08:51 45.29406 -65.55514 38122 ft 458 kts 235°
2026-04-26 08:52 45.25308 -65.62430 38120 ft 457 kts 235°
2026-04-26 08:52 45.21213 -65.69323 38115 ft 457 kts 235°
2026-04-26 08:53 45.17113 -65.76211 38118 ft 457 kts 235°
2026-04-26 08:53 45.13007 -65.83089 38121 ft 456 kts 235°
2026-04-26 08:54 45.08916 -65.89924 38120 ft 455 kts 234°
2026-04-26 08:54 45.04826 -65.96743 38124 ft 455 kts 234°
2026-04-26 08:55 45.00727 -66.03560 38105 ft 455 kts 234°
2026-04-26 08:55 44.96642 -66.10336 38131 ft 451 kts 234°
2026-04-26 08:56 44.92585 -66.17049 38110 ft 449 kts 234°
2026-04-26 08:56 44.88553 -66.23706 38120 ft 449 kts 234°
2026-04-26 08:57 44.84497 -66.30393 38119 ft 449 kts 234°
2026-04-26 08:57 44.80446 -66.37045 38119 ft 446 kts 234°
2026-04-26 08:58 44.76408 -66.43665 38107 ft 445 kts 234°
2026-04-26 08:58 44.72369 -66.50272 38111 ft 445 kts 234°
2026-04-26 08:59 44.68326 -66.56872 38109 ft 445 kts 234°
2026-04-26 08:59 44.64278 -66.63464 38112 ft 445 kts 234°
2026-04-26 09:00 44.60228 -66.70042 38114 ft 445 kts 234°
2026-04-26 09:00 44.56177 -66.76603 38117 ft 445 kts 234°
2026-04-26 09:01 44.52118 -66.83163 38108 ft 445 kts 234°
2026-04-26 09:01 44.48055 -66.89719 38119 ft 446 kts 234°
2026-04-26 09:02 44.43987 -66.96268 38119 ft 446 kts 233°
2026-04-26 09:02 44.39948 -67.02779 38121 ft 445 kts 234°
2026-04-26 09:03 44.35968 -67.09404 38127 ft 445 kts 235°
2026-04-26 09:03 44.32002 -67.16050 38127 ft 445 kts 235°
2026-04-26 09:04 44.28026 -67.22672 38130 ft 445 kts 234°
2026-04-26 09:04 44.24036 -67.29276 38122 ft 445 kts 234°
2026-04-26 09:05 44.20053 -67.35841 38119 ft 442 kts 234°
2026-04-26 09:05 44.16080 -67.42384 38122 ft 442 kts 234°
2026-04-26 09:06 44.12103 -67.48917 38133 ft 442 kts 234°
2026-04-26 09:06 44.08124 -67.55436 38128 ft 441 kts 234°
2026-04-26 09:07 44.04155 -67.61922 38133 ft 439 kts 234°
2026-04-26 09:07 44.00191 -67.68389 38128 ft 439 kts 234°
2026-04-26 09:08 43.96230 -67.74839 38133 ft 439 kts 234°
2026-04-26 09:08 43.92262 -67.81282 38132 ft 438 kts 234°
2026-04-26 09:09 43.88303 -67.87697 38133 ft 437 kts 234°
2026-04-26 09:09 43.84345 -67.94097 38134 ft 437 kts 234°
2026-04-26 09:10 43.80384 -68.00490 38116 ft 438 kts 234°
2026-04-26 09:10 43.76420 -68.06874 38142 ft 437 kts 234°
2026-04-26 09:11 43.72480 -68.13200 38136 ft 437 kts 234°
2026-04-26 09:11 43.68514 -68.19555 38138 ft 436 kts 234°
2026-04-26 09:12 43.64543 -68.25904 38135 ft 437 kts 234°
2026-04-26 09:12 43.60567 -68.32250 38140 ft 436 kts 234°
2026-04-26 09:13 43.56594 -68.38574 38143 ft 436 kts 234°
2026-04-26 09:13 43.52620 -68.44884 38143 ft 436 kts 233°
2026-04-26 09:14 43.48641 -68.51187 38144 ft 436 kts 233°
2026-04-26 09:14 43.44674 -68.57463 38146 ft 434 kts 233°
2026-04-26 09:15 43.40708 -68.63723 38145 ft 434 kts 233°
2026-04-26 09:15 43.36734 -68.69981 38145 ft 434 kts 233°
2026-04-26 09:16 43.32763 -68.76224 38147 ft 433 kts 233°
2026-04-26 09:16 43.28793 -68.82447 38151 ft 433 kts 233°
2026-04-26 09:17 43.24824 -68.88653 38152 ft 433 kts 233°
2026-04-26 09:17 43.20851 -68.94858 38134 ft 433 kts 233°
2026-04-26 09:18 43.16879 -69.01046 38155 ft 432 kts 233°
2026-04-26 09:18 43.12910 -69.07214 38153 ft 431 kts 233°
2026-04-26 09:19 43.08939 -69.13370 38152 ft 431 kts 233°
2026-04-26 09:19 43.04966 -69.19525 38153 ft 431 kts 233°
2026-04-26 09:20 43.01006 -69.25642 38158 ft 428 kts 233°
2026-04-26 09:20 42.97059 -69.31725 38157 ft 428 kts 233°
2026-04-26 09:21 42.93108 -69.37805 38157 ft 428 kts 233°
2026-04-26 09:21 42.89826 -69.42844 38160 ft 428 kts 233°
2026-04-26 09:22 42.85869 -69.48906 38156 ft 428 kts 233°
2026-04-26 09:22 42.81909 -69.54961 38160 ft 428 kts 232°
2026-04-26 09:23 42.77290 -69.62010 38160 ft 429 kts 232°
2026-04-26 09:23 42.73963 -69.67081 38158 ft 428 kts 232°
2026-04-26 09:24 42.69997 -69.73101 38161 ft 426 kts 232°
2026-04-26 09:24 42.66037 -69.79100 38162 ft 426 kts 232°
2026-04-26 09:25 42.62100 -69.85061 38155 ft 427 kts 232°
2026-04-26 09:25 42.58135 -69.91054 38159 ft 426 kts 232°
2026-04-26 09:26 42.54140 -69.97070 38160 ft 427 kts 232°
2026-04-26 09:26 42.50166 -70.03041 38155 ft 426 kts 232°
2026-04-26 09:27 42.46220 -70.08968 38127 ft 426 kts 232°
2026-04-26 09:27 42.42224 -70.14950 38140 ft 424 kts 232°
2026-04-26 09:28 42.38298 -70.20832 38153 ft 424 kts 232°
2026-04-26 09:28 42.34334 -70.26753 38144 ft 425 kts 232°
2026-04-26 09:29 42.30355 -70.32675 38130 ft 426 kts 232°
2026-04-26 09:29 42.26378 -70.38573 38135 ft 423 kts 232°
2026-04-26 09:30 42.22422 -70.44430 38139 ft 422 kts 232°
2026-04-26 09:30 42.18472 -70.50275 38141 ft 422 kts 232°
2026-04-26 09:31 42.14515 -70.56119 38139 ft 422 kts 231°
2026-04-26 09:31 42.10552 -70.61962 38146 ft 422 kts 231°
2026-04-26 09:32 42.06595 -70.67790 38145 ft 421 kts 231°
2026-04-26 09:32 42.02633 -70.73612 38145 ft 422 kts 231°
2026-04-26 09:33 41.98663 -70.79423 38122 ft 421 kts 231°
2026-04-26 09:33 41.94694 -70.85220 38138 ft 421 kts 231°
2026-04-26 09:34 41.90725 -70.91011 38148 ft 422 kts 231°
2026-04-26 09:34 41.86768 -70.96777 38147 ft 423 kts 231°
2026-04-26 09:35 41.82770 -71.02593 38124 ft 424 kts 231°
2026-04-26 09:35 41.78774 -71.08384 38146 ft 423 kts 231°
2026-04-26 09:36 41.74780 -71.14164 38138 ft 423 kts 231°
2026-04-26 09:36 41.70784 -71.19939 38141 ft 423 kts 231°
2026-04-26 09:37 41.66785 -71.25704 38123 ft 423 kts 231°
2026-04-26 09:37 41.62785 -71.31467 38148 ft 422 kts 231°
2026-04-26 09:38 41.58790 -71.37206 38144 ft 421 kts 231°
2026-04-26 09:38 41.54792 -71.42935 38128 ft 422 kts 231°
2026-04-26 09:39 41.50790 -71.48661 38141 ft 422 kts 231°
2026-04-26 09:39 41.46792 -71.54369 38142 ft 420 kts 231°
2026-04-26 09:40 41.42833 -71.60014 38133 ft 420 kts 231°
2026-04-26 09:40 41.38834 -71.65705 38132 ft 421 kts 231°
2026-04-26 09:41 41.34829 -71.71390 38139 ft 421 kts 231°
2026-04-26 09:41 41.30825 -71.77064 38137 ft 421 kts 231°
2026-04-26 09:42 41.26814 -71.82737 38140 ft 421 kts 231°
2026-04-26 09:42 41.22800 -71.88406 38137 ft 421 kts 231°
2026-04-26 09:43 41.18784 -71.94063 38140 ft 421 kts 230°
2026-04-26 09:43 41.14760 -71.99720 38135 ft 421 kts 230°
2026-04-26 09:44 41.10739 -72.05360 38138 ft 420 kts 230°
2026-04-26 09:44 41.06720 -72.10991 38137 ft 420 kts 230°
2026-04-26 09:45 41.02726 -72.16577 38138 ft 421 kts 230°
2026-04-26 09:45 40.98700 -72.22198 38116 ft 420 kts 230°
2026-04-26 09:46 40.94674 -72.27804 38122 ft 420 kts 230°
2026-04-26 09:46 40.90422 -72.33131 38118 ft 424 kts 224°
2026-04-26 09:47 40.85812 -72.38033 38120 ft 425 kts 223°
2026-04-26 09:47 40.81147 -72.42843 38126 ft 426 kts 222°
2026-04-26 09:48 40.76482 -72.47635 38127 ft 425 kts 223°
2026-04-26 09:48 40.71825 -72.52429 38124 ft 424 kts 223°
2026-04-26 09:49 40.67170 -72.57220 38119 ft 425 kts 223°
2026-04-26 09:49 40.62513 -72.62006 38120 ft 424 kts 223°
2026-04-26 09:50 40.57892 -72.66748 38115 ft 424 kts 223°
2026-04-26 09:50 40.53235 -72.71514 38109 ft 418 kts 223°
2026-04-26 09:51 40.48657 -72.76192 38108 ft 416 kts 223°
2026-04-26 09:51 40.44085 -72.80856 38100 ft 416 kts 223°
2026-04-26 09:52 40.39512 -72.85513 38100 ft 416 kts 223°
2026-04-26 09:52 40.32680 -72.92456 38101 ft 416 kts 223°
2026-04-26 09:53 40.28098 -72.97103 38071 ft 416 kts 223°
2026-04-26 09:53 40.23516 -73.01742 38086 ft 416 kts 223°
2026-04-26 09:54 40.18928 -73.06378 38089 ft 417 kts 222°
2026-04-26 09:54 40.14334 -73.11011 38083 ft 417 kts 222°
2026-04-26 09:55 40.09744 -73.15631 38061 ft 416 kts 222°
2026-04-26 09:55 40.05158 -73.20237 38077 ft 416 kts 222°
2026-04-26 09:56 40.00574 -73.24839 38076 ft 416 kts 222°
2026-04-26 09:56 39.95986 -73.29436 38077 ft 416 kts 222°
2026-04-26 09:57 39.91390 -73.34030 38050 ft 416 kts 222°
2026-04-26 09:57 39.86794 -73.38617 38059 ft 416 kts 222°
2026-04-26 09:58 39.82199 -73.43195 38059 ft 416 kts 222°
2026-04-26 09:58 39.77601 -73.47769 38051 ft 416 kts 222°
2026-04-26 09:59 39.73773 -73.51571 38059 ft 416 kts 222°
2026-04-26 09:59 39.68400 -73.56896 38058 ft 415 kts 222°
2026-04-26 10:00 39.63819 -73.61429 38061 ft 413 kts 222°
2026-04-26 10:00 39.59274 -73.65919 38081 ft 414 kts 222°
2026-04-26 10:01 39.54687 -73.70441 38045 ft 414 kts 222°
2026-04-26 10:01 39.50098 -73.74959 38060 ft 414 kts 222°
2026-04-26 10:02 39.45506 -73.79474 38056 ft 415 kts 222°
2026-04-26 10:02 39.40912 -73.83982 38044 ft 415 kts 222°
2026-04-26 10:03 39.36314 -73.88486 38029 ft 415 kts 222°
2026-04-26 10:03 39.31709 -73.92985 38034 ft 415 kts 222°
2026-04-26 10:04 39.27120 -73.97464 38042 ft 413 kts 222°
2026-04-26 10:04 39.22537 -74.01932 38034 ft 413 kts 222°
2026-04-26 10:05 39.17946 -74.06400 38021 ft 414 kts 222°
2026-04-26 10:05 39.13351 -74.10863 38023 ft 413 kts 222°
2026-04-26 10:06 39.08774 -74.15300 38021 ft 410 kts 222°
2026-04-26 10:06 39.04216 -74.19713 38021 ft 410 kts 222°
2026-04-26 10:07 38.99650 -74.24127 38021 ft 410 kts 222°
2026-04-26 10:07 38.95083 -74.28533 37996 ft 411 kts 222°
2026-04-26 10:08 38.90519 -74.32929 38018 ft 410 kts 222°
2026-04-26 10:08 38.85955 -74.37320 38013 ft 410 kts 222°
2026-04-26 10:09 38.82158 -74.40966 38009 ft 411 kts 222°
2026-04-26 10:09 38.77581 -74.45354 38001 ft 411 kts 222°
2026-04-26 10:10 38.72999 -74.49738 38000 ft 410 kts 222°
2026-04-26 10:10 38.68434 -74.54098 38005 ft 408 kts 222°
2026-04-26 10:11 38.63881 -74.58444 37996 ft 409 kts 222°
2026-04-26 10:11 38.59321 -74.62789 37995 ft 409 kts 222°
2026-04-26 10:12 38.54759 -74.67129 37991 ft 409 kts 222°
2026-04-26 10:12 38.50197 -74.71458 37996 ft 408 kts 222°
2026-04-26 10:13 38.45637 -74.75782 37991 ft 408 kts 222°
2026-04-26 10:13 38.41077 -74.80098 37998 ft 408 kts 222°
2026-04-26 10:14 38.36513 -74.84410 37993 ft 408 kts 222°
2026-04-26 10:14 38.31952 -74.88709 37994 ft 408 kts 222°
2026-04-26 10:15 38.27420 -74.92975 37998 ft 408 kts 222°
2026-04-26 10:15 38.22860 -74.97264 37986 ft 408 kts 222°
2026-04-26 10:16 38.18300 -75.01549 38001 ft 408 kts 222°
2026-04-26 10:16 38.13735 -75.05829 37999 ft 408 kts 221°
2026-04-26 10:17 38.09168 -75.10104 37983 ft 407 kts 221°
2026-04-26 10:17 38.04608 -75.14363 37992 ft 407 kts 221°
2026-04-26 10:18 38.00051 -75.18616 37991 ft 407 kts 221°
2026-04-26 10:18 37.95491 -75.22863 38010 ft 407 kts 221°
2026-04-26 10:19 37.90927 -75.27106 38007 ft 406 kts 221°
2026-04-26 10:19 37.86369 -75.31337 38008 ft 406 kts 221°
2026-04-26 10:20 37.81808 -75.35566 38004 ft 406 kts 221°
2026-04-26 10:20 37.77239 -75.39795 38003 ft 406 kts 221°
2026-04-26 10:21 37.72708 -75.43983 37991 ft 406 kts 221°
2026-04-26 10:21 37.68163 -75.48176 38003 ft 404 kts 221°
2026-04-26 10:22 37.63632 -75.52351 38008 ft 403 kts 221°
2026-04-26 10:22 37.59098 -75.56524 38011 ft 403 kts 221°
2026-04-26 10:23 37.54560 -75.60691 38011 ft 404 kts 221°
2026-04-26 10:23 37.50021 -75.64853 38011 ft 403 kts 221°
2026-04-26 10:24 37.45484 -75.69007 38007 ft 403 kts 221°
2026-04-26 10:24 37.40941 -75.73160 38001 ft 403 kts 221°
2026-04-26 10:25 37.36397 -75.77306 37994 ft 403 kts 221°
2026-04-26 10:25 37.31854 -75.81445 37977 ft 404 kts 220°
2026-04-26 10:26 37.27314 -75.85575 37991 ft 402 kts 220°
2026-04-26 10:26 37.22784 -75.89693 37987 ft 402 kts 220°
2026-04-26 10:27 37.18256 -75.93803 37990 ft 402 kts 220°
2026-04-26 10:27 37.13753 -75.97884 37991 ft 402 kts 220°
2026-04-26 10:28 37.09193 -76.02009 37988 ft 401 kts 220°
2026-04-26 10:28 37.04715 -76.06052 37990 ft 399 kts 220°
2026-04-26 10:29 37.00212 -76.10112 37989 ft 399 kts 220°
2026-04-26 10:29 36.95709 -76.14169 37989 ft 399 kts 220°
2026-04-26 10:30 36.91194 -76.18228 38035 ft 402 kts 220°
2026-04-26 10:30 36.86699 -76.22363 38429 ft 398 kts 222°
2026-04-26 10:31 36.84557 -76.24537 38643 ft 397 kts 224°
2026-04-26 10:31 36.82441 -76.26755 38760 ft 397 kts 224°
2026-04-26 10:31 36.78201 -76.31211 38936 ft 400 kts 224°
2026-04-26 10:32 36.76061 -76.33433 39039 ft 401 kts 224°
2026-04-26 10:32 36.73911 -76.35645 39125 ft 401 kts 223°
2026-04-26 10:32 36.69578 -76.40065 39316 ft 403 kts 223°
2026-04-26 10:33 36.67403 -76.42274 39455 ft 402 kts 223°
2026-04-26 10:33 36.65244 -76.44463 39637 ft 400 kts 223°
2026-04-26 10:33 36.60917 -76.48854 39774 ft 402 kts 223°
2026-04-26 10:34 36.56556 -76.53275 39762 ft 409 kts 223°
2026-04-26 10:34 36.52126 -76.57761 39880 ft 410 kts 223°
2026-04-26 10:35 36.47683 -76.62247 39937 ft 414 kts 223°
2026-04-26 10:35 36.43200 -76.66774 39965 ft 416 kts 223°
2026-04-26 10:36 36.38732 -76.71274 39963 ft 412 kts 223°
2026-04-26 10:36 36.34308 -76.75722 39963 ft 412 kts 223°
2026-04-26 10:37 36.29852 -76.80198 39960 ft 412 kts 223°
2026-04-26 10:37 36.25398 -76.84666 39951 ft 412 kts 223°
2026-04-26 10:38 36.20948 -76.89122 39961 ft 412 kts 222°
2026-04-26 10:38 36.16464 -76.93611 39957 ft 417 kts 222°
2026-04-26 10:39 36.11940 -76.98128 39955 ft 418 kts 222°
2026-04-26 10:39 36.07418 -77.02634 39954 ft 417 kts 222°
2026-04-26 10:40 36.02898 -77.07132 39948 ft 417 kts 222°
2026-04-26 10:40 35.98399 -77.11602 39960 ft 413 kts 222°
2026-04-26 10:41 35.93920 -77.16046 39962 ft 413 kts 222°
2026-04-26 10:41 35.89439 -77.20486 39961 ft 413 kts 222°
2026-04-26 10:42 35.84953 -77.24924 39940 ft 414 kts 222°
2026-04-26 10:42 35.80425 -77.29401 39938 ft 420 kts 222°
2026-04-26 10:43 35.75888 -77.33878 39941 ft 420 kts 222°
2026-04-26 10:43 35.71335 -77.38359 39943 ft 418 kts 222°
2026-04-26 10:44 35.66787 -77.42833 39943 ft 418 kts 222°
2026-04-26 10:44 35.62242 -77.47297 39943 ft 418 kts 222°
2026-04-26 10:45 35.57691 -77.51759 39937 ft 418 kts 222°
2026-04-26 10:45 35.53162 -77.56191 39938 ft 415 kts 222°
2026-04-26 10:46 35.48650 -77.60603 39947 ft 415 kts 222°
2026-04-26 10:46 35.44103 -77.65045 39951 ft 421 kts 221°
2026-04-26 10:47 35.39510 -77.69522 39949 ft 422 kts 221°
2026-04-26 10:47 35.34908 -77.73996 39955 ft 422 kts 221°
2026-04-26 10:48 35.30314 -77.78461 39948 ft 422 kts 221°
2026-04-26 10:48 35.25714 -77.82929 39931 ft 422 kts 221°
2026-04-26 10:49 35.21110 -77.87387 39933 ft 422 kts 221°
2026-04-26 10:49 35.16508 -77.91838 39932 ft 422 kts 221°
2026-04-26 10:50 35.12681 -77.95536 39944 ft 422 kts 221°
2026-04-26 10:50 35.07299 -78.00731 39952 ft 423 kts 221°
2026-04-26 10:51 35.00375 -78.07402 39952 ft 425 kts 221°
2026-04-26 10:52 34.95727 -78.11865 39949 ft 425 kts 221°
2026-04-26 10:52 34.91076 -78.16325 39927 ft 425 kts 221°
2026-04-26 10:53 34.86439 -78.20766 39951 ft 423 kts 221°
2026-04-26 10:53 34.81812 -78.25195 39949 ft 423 kts 221°
2026-04-26 10:54 34.74874 -78.31823 39936 ft 423 kts 221°
2026-04-26 10:54 34.70244 -78.36240 39935 ft 423 kts 221°
2026-04-26 10:55 34.65614 -78.40643 39940 ft 422 kts 221°
2026-04-26 10:55 34.61783 -78.44282 39953 ft 420 kts 221°
2026-04-26 10:56 34.56410 -78.49383 39950 ft 420 kts 221°
2026-04-26 10:56 34.52588 -78.53007 39944 ft 420 kts 221°
2026-04-26 10:57 34.47984 -78.57367 39948 ft 420 kts 221°
2026-04-26 10:57 34.43377 -78.61721 39937 ft 420 kts 221°
2026-04-26 10:58 34.38779 -78.66064 39950 ft 419 kts 221°
2026-04-26 10:58 34.34182 -78.70395 39944 ft 420 kts 221°
2026-04-26 10:59 34.29547 -78.74759 39952 ft 425 kts 221°
2026-04-26 10:59 34.24838 -78.79187 39904 ft 431 kts 221°
2026-04-26 11:00 34.20095 -78.83636 39900 ft 431 kts 221°
2026-04-26 11:00 34.15362 -78.88068 39907 ft 430 kts 221°
2026-04-26 11:01 34.10637 -78.92489 39905 ft 430 kts 221°
2026-04-26 11:01 34.05940 -78.96877 39912 ft 430 kts 221°
2026-04-26 11:02 34.01210 -79.01291 39919 ft 430 kts 221°
2026-04-26 11:02 33.96478 -79.05700 39921 ft 430 kts 221°
2026-04-26 11:03 33.91740 -79.10109 39933 ft 432 kts 221°
2026-04-26 11:03 33.86973 -79.14538 39930 ft 433 kts 221°
2026-04-26 11:04 33.82199 -79.18966 39937 ft 433 kts 221°
2026-04-26 11:04 33.77416 -79.23396 39934 ft 433 kts 221°
2026-04-26 11:05 33.72637 -79.27815 39915 ft 434 kts 221°
2026-04-26 11:05 33.67851 -79.32237 39907 ft 435 kts 221°
2026-04-26 11:06 33.63053 -79.36662 39910 ft 435 kts 221°
2026-04-26 11:06 33.58257 -79.41078 39914 ft 435 kts 220°
2026-04-26 11:07 33.53486 -79.45466 39914 ft 436 kts 221°
2026-04-26 11:07 33.48656 -79.49903 39907 ft 438 kts 221°
2026-04-26 11:08 33.43808 -79.54348 39914 ft 439 kts 221°
2026-04-26 11:08 33.38952 -79.58794 39911 ft 439 kts 221°
2026-04-26 11:09 33.34095 -79.63234 39909 ft 439 kts 221°
2026-04-26 11:09 33.29238 -79.67669 39907 ft 439 kts 221°
2026-04-26 11:10 33.24376 -79.72101 39896 ft 440 kts 221°
2026-04-26 11:10 33.19505 -79.76536 39910 ft 441 kts 221°
2026-04-26 11:11 33.14623 -79.80975 39916 ft 441 kts 221°
2026-04-26 11:11 33.09737 -79.85410 39916 ft 441 kts 221°
2026-04-26 11:12 33.04849 -79.89841 39915 ft 441 kts 221°
2026-04-26 11:12 32.99958 -79.94269 39915 ft 441 kts 221°
2026-04-26 11:13 32.95064 -79.98692 39915 ft 442 kts 221°
2026-04-26 11:13 32.90211 -80.03100 39917 ft 440 kts 224°
2026-04-26 11:14 32.85626 -80.07910 39915 ft 439 kts 226°
2026-04-26 11:14 32.81122 -80.12802 39913 ft 439 kts 226°
2026-04-26 11:15 32.76635 -80.17702 39880 ft 436 kts 227°
2026-04-26 11:15 32.72172 -80.22563 39902 ft 436 kts 227°
2026-04-26 11:16 32.67688 -80.27432 39899 ft 437 kts 227°
2026-04-26 11:16 32.63197 -80.32297 39896 ft 437 kts 227°
2026-04-26 11:17 32.58706 -80.37156 39893 ft 437 kts 227°
2026-04-26 11:17 32.54211 -80.42011 39892 ft 437 kts 227°
2026-04-26 11:18 32.49714 -80.46863 39893 ft 438 kts 227°
2026-04-26 11:18 32.45202 -80.51724 39895 ft 439 kts 227°
2026-04-26 11:19 32.40682 -80.56586 39895 ft 440 kts 227°
2026-04-26 11:19 32.36147 -80.61459 39892 ft 441 kts 227°
2026-04-26 11:20 32.32365 -80.65516 39914 ft 441 kts 227°
2026-04-26 11:20 32.27047 -80.71212 39896 ft 441 kts 227°
2026-04-26 11:21 32.22487 -80.76090 39917 ft 443 kts 227°
2026-04-26 11:21 32.17948 -80.80938 39914 ft 443 kts 227°
2026-04-26 11:22 32.13369 -80.85822 39909 ft 443 kts 227°
2026-04-26 11:22 32.08794 -80.90695 39880 ft 444 kts 227°
2026-04-26 11:23 32.04207 -80.95573 39871 ft 444 kts 228°
2026-04-26 11:23 31.99613 -81.00455 39871 ft 446 kts 228°
2026-04-26 11:24 31.95000 -81.05348 39879 ft 447 kts 228°
2026-04-26 11:24 31.90378 -81.10243 39877 ft 447 kts 228°
2026-04-26 11:25 31.85752 -81.15135 39878 ft 447 kts 228°
2026-04-26 11:25 31.81124 -81.20022 39881 ft 447 kts 228°
2026-04-26 11:26 31.76494 -81.24905 39873 ft 447 kts 228°
2026-04-26 11:26 31.71861 -81.29786 39894 ft 448 kts 229°
2026-04-26 11:27 31.67238 -81.34649 39909 ft 450 kts 229°
2026-04-26 11:27 31.62567 -81.39555 39896 ft 450 kts 229°
2026-04-26 11:28 31.57895 -81.44453 39904 ft 450 kts 229°
2026-04-26 11:28 31.53220 -81.49349 39916 ft 451 kts 229°
2026-04-26 11:29 31.48542 -81.54242 39919 ft 451 kts 229°
2026-04-26 11:29 31.43850 -81.59143 39924 ft 452 kts 229°
2026-04-26 11:30 31.39951 -81.63210 39928 ft 452 kts 229°
2026-04-26 11:30 31.34457 -81.68931 39930 ft 452 kts 229°
2026-04-26 11:31 31.29755 -81.73822 39925 ft 453 kts 229°
2026-04-26 11:31 31.25047 -81.78711 39886 ft 453 kts 229°
2026-04-26 11:32 31.20332 -81.83602 39909 ft 454 kts 229°
2026-04-26 11:32 31.15607 -81.88496 39908 ft 454 kts 229°
2026-04-26 11:33 31.10880 -81.93384 39912 ft 454 kts 229°
2026-04-26 11:33 31.06180 -81.98238 39917 ft 454 kts 229°
2026-04-26 11:34 31.01448 -82.03119 39947 ft 454 kts 229°
2026-04-26 11:34 30.96713 -82.07996 39947 ft 454 kts 229°
2026-04-26 11:35 30.91976 -82.12868 40019 ft 454 kts 229°
2026-04-26 11:35 30.88003 -82.16949 40013 ft 454 kts 229°
2026-04-26 11:36 30.82492 -82.22603 40026 ft 454 kts 229°
2026-04-26 11:36 30.77746 -82.27464 40027 ft 454 kts 229°
2026-04-26 11:37 30.73001 -82.32319 40036 ft 455 kts 229°
2026-04-26 11:37 30.68249 -82.37173 40042 ft 455 kts 229°
2026-04-26 11:38 30.63490 -82.42028 40029 ft 455 kts 229°
2026-04-26 11:38 30.58734 -82.46872 40031 ft 454 kts 229°
2026-04-26 11:39 30.53984 -82.51705 40030 ft 454 kts 229°
2026-04-26 11:39 30.48817 -82.56069 40015 ft 468 kts 217°
2026-04-26 11:40 30.43032 -82.59492 40018 ft 472 kts 213°
2026-04-26 11:40 30.37077 -82.62750 40000 ft 473 kts 213°
2026-04-26 11:42 30.13283 -82.75764 39957 ft 472 kts 213°
2026-04-26 11:43 30.07348 -82.79018 39951 ft 472 kts 213°
2026-04-26 11:43 30.01415 -82.82266 39948 ft 472 kts 213°
2026-04-26 11:44 29.96487 -82.84961 39947 ft 472 kts 213°
2026-04-26 11:44 29.90556 -82.88200 39928 ft 472 kts 212°
2026-04-26 11:45 29.83658 -82.91962 39945 ft 471 kts 212°
2026-04-26 11:45 29.78697 -82.94663 39947 ft 471 kts 212°
2026-04-26 11:46 29.72771 -82.97887 39951 ft 471 kts 212°
2026-04-26 11:46 29.66844 -83.01107 39952 ft 471 kts 212°
2026-04-26 11:47 29.60953 -83.04378 39949 ft 467 kts 217°
2026-04-26 11:47 29.55608 -83.08465 39953 ft 460 kts 223°
2026-04-26 11:48 29.50478 -83.12757 39940 ft 459 kts 224°
2026-04-26 11:48 29.45350 -83.17117 39937 ft 459 kts 224°
2026-04-26 11:49 29.40208 -83.21469 39935 ft 459 kts 224°
2026-04-26 11:49 29.35059 -83.25803 39933 ft 459 kts 223°
2026-04-26 11:50 29.29901 -83.30131 39944 ft 459 kts 223°
2026-04-26 11:50 29.24743 -83.34452 39944 ft 459 kts 223°
2026-04-26 11:51 29.19589 -83.38767 39944 ft 459 kts 223°
2026-04-26 11:51 29.14431 -83.43079 39944 ft 459 kts 223°
2026-04-26 11:52 29.09267 -83.47391 39947 ft 459 kts 223°
2026-04-26 11:52 29.04104 -83.51697 39946 ft 460 kts 222°
2026-04-26 11:53 28.98935 -83.56003 39936 ft 460 kts 223°
2026-04-26 11:54 28.91162 -83.62468 39939 ft 461 kts 223°
2026-04-26 11:54 28.85971 -83.66776 39957 ft 461 kts 223°
2026-04-26 11:55 28.80779 -83.71082 39940 ft 461 kts 223°
2026-04-26 11:55 28.75588 -83.75380 39949 ft 461 kts 223°
2026-04-26 11:56 28.70396 -83.79675 39952 ft 461 kts 223°
2026-04-26 11:56 28.65199 -83.83968 39946 ft 461 kts 223°
2026-04-26 11:57 28.60038 -83.88227 39943 ft 461 kts 223°
2026-04-26 11:57 28.54839 -83.92510 39950 ft 461 kts 223°
2026-04-26 11:58 28.49637 -83.96791 39948 ft 462 kts 223°
2026-04-26 11:58 28.44432 -84.01070 39951 ft 461 kts 223°
2026-04-26 11:59 28.39225 -84.05345 39956 ft 461 kts 223°
2026-04-26 11:59 28.34022 -84.09611 39959 ft 461 kts 223°
2026-04-26 12:00 28.28815 -84.13875 39957 ft 461 kts 223°
2026-04-26 12:00 28.23608 -84.18134 39948 ft 461 kts 223°
2026-04-26 12:01 28.18401 -84.22389 39960 ft 462 kts 223°
2026-04-26 12:01 28.13183 -84.26646 39960 ft 462 kts 223°
2026-04-26 12:02 28.07966 -84.30897 39956 ft 462 kts 223°
2026-04-26 12:02 28.02763 -84.35131 39960 ft 460 kts 222°
2026-04-26 12:03 27.97567 -84.39355 39962 ft 460 kts 222°
2026-04-26 12:03 27.92372 -84.43574 39965 ft 460 kts 222°
2026-04-26 12:04 27.87185 -84.47781 39963 ft 459 kts 222°
2026-04-26 12:04 27.82038 -84.51950 39961 ft 458 kts 221°
2026-04-26 12:05 27.76850 -84.56148 39961 ft 458 kts 221°
2026-04-26 12:05 27.71661 -84.60341 39958 ft 458 kts 221°
2026-04-26 12:06 27.66472 -84.64529 39963 ft 458 kts 221°
2026-04-26 12:06 27.61282 -84.68714 39960 ft 459 kts 222°
2026-04-26 12:07 27.56082 -84.72901 39962 ft 460 kts 222°
2026-04-26 12:07 27.50830 -84.76964 39965 ft 465 kts 216°
2026-04-26 12:08 27.44775 -84.79732 39964 ft 475 kts 203°
2026-04-26 12:08 27.38390 -84.81771 39963 ft 478 kts 200°
2026-04-26 12:09 27.31945 -84.83677 39963 ft 480 kts 201°
2026-04-26 12:09 27.25489 -84.85598 39963 ft 480 kts 201°
2026-04-26 12:10 27.19032 -84.87548 39962 ft 480 kts 201°
2026-04-26 12:10 27.12586 -84.89505 39966 ft 480 kts 201°
2026-04-26 12:11 27.06144 -84.91460 39959 ft 480 kts 201°
2026-04-26 12:11 26.99679 -84.93419 39966 ft 481 kts 201°
2026-04-26 12:12 26.93258 -84.95362 39964 ft 481 kts 201°
2026-04-26 12:12 26.86791 -84.97315 39966 ft 481 kts 201°
2026-04-26 12:13 26.80322 -84.99267 39963 ft 481 kts 201°
2026-04-26 12:13 26.73850 -85.01217 39965 ft 482 kts 202°
2026-04-26 12:14 26.67379 -85.03165 39965 ft 482 kts 202°
2026-04-26 12:14 26.60907 -85.05111 39962 ft 482 kts 202°
2026-04-26 12:15 26.54429 -85.07057 39964 ft 482 kts 202°
2026-04-26 12:15 26.47955 -85.08999 39939 ft 482 kts 202°
2026-04-26 12:16 26.41484 -85.10937 39972 ft 481 kts 202°
2026-04-26 12:16 26.35032 -85.12867 39970 ft 480 kts 202°
2026-04-26 12:17 26.28586 -85.14795 39969 ft 480 kts 202°
2026-04-26 12:17 26.22137 -85.16721 39968 ft 480 kts 202°
2026-04-26 12:18 26.15729 -85.18632 39967 ft 480 kts 202°
2026-04-26 12:18 26.09242 -85.20564 39969 ft 479 kts 202°
2026-04-26 12:19 26.02854 -85.22465 39969 ft 478 kts 202°
2026-04-26 12:19 25.96424 -85.24377 39972 ft 478 kts 202°
2026-04-26 12:20 25.89992 -85.26287 39970 ft 478 kts 202°
2026-04-26 12:20 25.83561 -85.28194 39968 ft 478 kts 202°
2026-04-26 12:21 25.77136 -85.30097 39971 ft 478 kts 202°
2026-04-26 12:21 25.70709 -85.31998 39972 ft 478 kts 202°
2026-04-26 12:22 25.64279 -85.33899 39968 ft 478 kts 202°
2026-04-26 12:22 25.57856 -85.35796 39968 ft 478 kts 202°
2026-04-26 12:23 25.51426 -85.37692 39970 ft 478 kts 202°
2026-04-26 12:23 25.44994 -85.39587 39971 ft 478 kts 202°
2026-04-26 12:24 25.38569 -85.41477 39971 ft 478 kts 202°
2026-04-26 12:24 25.32138 -85.43368 39965 ft 479 kts 202°
2026-04-26 12:25 25.22493 -85.46201 39964 ft 481 kts 202°
2026-04-26 12:25 25.16029 -85.48095 39964 ft 481 kts 202°
2026-04-26 12:26 25.09476 -85.49720 39967 ft 490 kts 193°
2026-04-26 12:26 25.02614 -85.50045 39961 ft 495 kts 187°
2026-04-26 12:27 24.95704 -85.50049 39972 ft 497 kts 186°
2026-04-26 12:27 24.88791 -85.50003 39967 ft 496 kts 186°
2026-04-26 12:28 24.81890 -85.49980 39971 ft 496 kts 186°
2026-04-26 12:28 24.74989 -85.49977 39974 ft 496 kts 186°
2026-04-26 12:29 24.68094 -85.49981 39964 ft 496 kts 186°
2026-04-26 12:30 24.57752 -85.49986 39971 ft 496 kts 186°
2026-04-26 12:30 24.50848 -85.49988 39969 ft 496 kts 186°
2026-04-26 12:31 24.40499 -85.49990 39969 ft 496 kts 186°
2026-04-26 12:31 24.33602 -85.49992 39971 ft 496 kts 186°
2026-04-26 12:32 24.27869 -85.49993 39969 ft 495 kts 186°
2026-04-26 12:33 24.17548 -85.49995 39966 ft 494 kts 186°
2026-04-26 12:33 24.10670 -85.49997 39969 ft 494 kts 186°
2026-04-26 12:34 24.03790 -85.50000 39966 ft 494 kts 186°
2026-04-26 12:34 23.96917 -85.50042 39961 ft 492 kts 188°
2026-04-26 12:35 23.90094 -85.50373 39964 ft 490 kts 189°
2026-04-26 12:35 23.83289 -85.50775 39966 ft 490 kts 189°
2026-04-26 12:36 23.76516 -85.51139 39963 ft 490 kts 189°
2026-04-26 12:36 23.69697 -85.51476 39963 ft 490 kts 189°
2026-04-26 12:37 23.62887 -85.51804 39964 ft 489 kts 188°
2026-04-26 12:37 23.56089 -85.52129 39963 ft 489 kts 188°
2026-04-26 12:38 23.49297 -85.52457 39962 ft 488 kts 188°
2026-04-26 12:38 23.42506 -85.52785 39962 ft 488 kts 188°
2026-04-26 12:39 23.35715 -85.53113 39939 ft 488 kts 188°
2026-04-26 12:39 23.28929 -85.53440 39961 ft 488 kts 188°
2026-04-26 12:40 23.22137 -85.53767 39960 ft 488 kts 188°
2026-04-26 12:40 23.15397 -85.54091 39960 ft 488 kts 188°
2026-04-26 12:41 23.08614 -85.54417 39963 ft 488 kts 188°
2026-04-26 12:41 23.01832 -85.54742 39948 ft 488 kts 188°
2026-04-26 12:42 22.95055 -85.55066 39957 ft 487 kts 188°
2026-04-26 12:42 22.91668 -85.55228 39799 ft 486 kts 188°
2026-04-26 12:42 22.88307 -85.55388 39714 ft 483 kts 188°
2026-04-26 12:43 22.81593 -85.55709 39227 ft 482 kts 188°
2026-04-26 12:43 22.78230 -85.55871 38687 ft 485 kts 188°
2026-04-26 12:43 22.74846 -85.56035 38078 ft 487 kts 188°
2026-04-26 12:43 22.71458 -85.56198 37489 ft 487 kts 188°
2026-04-26 12:44 22.68069 -85.56359 36967 ft 486 kts 187°
2026-04-26 12:44 22.64691 -85.56519 36401 ft 486 kts 187°
2026-04-26 12:44 22.61309 -85.56680 35807 ft 487 kts 187°
2026-04-26 12:44 22.57958 -85.56841 35185 ft 489 kts 187°
2026-04-26 12:45 22.54549 -85.57004 34530 ft 492 kts 187°
2026-04-26 12:45 22.51127 -85.57168 33837 ft 494 kts 187°
2026-04-26 12:45 22.47684 -85.57333 33096 ft 496 kts 187°
2026-04-26 12:45 22.44230 -85.57496 32375 ft 497 kts 187°
2026-04-26 12:46 22.40774 -85.57659 31634 ft 499 kts 186°
2026-04-26 12:46 22.37298 -85.57823 30932 ft 500 kts 186°
2026-04-26 12:46 22.33838 -85.57986 30453 ft 496 kts 186°
2026-04-26 12:46 22.30406 -85.58155 29943 ft 491 kts 188°
2026-04-26 12:47 22.27080 -85.58780 29300 ft 481 kts 201°
2026-04-26 12:47 22.24067 -85.60213 28741 ft 467 kts 217°
2026-04-26 12:47 22.21589 -85.62386 28231 ft 452 kts 232°
2026-04-26 12:47 22.19599 -85.64963 27745 ft 443 kts 237°
2026-04-26 12:48 22.17746 -85.67592 27292 ft 438 kts 238°
2026-04-26 12:48 22.15928 -85.70204 26797 ft 434 kts 238°
2026-04-26 12:48 22.14117 -85.72801 26319 ft 430 kts 237°
2026-04-26 12:48 22.12326 -85.75364 25845 ft 426 kts 237°
2026-04-26 12:49 22.10550 -85.77903 25380 ft 422 kts 237°
2026-04-26 12:49 22.08786 -85.80421 24922 ft 419 kts 237°
2026-04-26 12:49 22.07032 -85.82920 24447 ft 416 kts 237°
2026-04-26 12:49 22.05292 -85.85398 23995 ft 413 kts 237°
2026-04-26 12:50 22.03565 -85.87859 23535 ft 410 kts 237°
2026-04-26 12:50 22.01872 -85.90266 23042 ft 406 kts 237°
2026-04-26 12:50 22.00191 -85.92655 22901 ft 394 kts 237°
2026-04-26 12:50 21.98549 -85.94985 22528 ft 389 kts 237°
2026-04-26 12:51 21.96902 -85.97292 22070 ft 388 kts 234°
2026-04-26 12:51 21.95012 -85.99377 21738 ft 389 kts 226°
2026-04-26 12:51 21.92982 -86.01324 21528 ft 392 kts 225°
2026-04-26 12:51 21.90924 -86.03256 21334 ft 390 kts 225°
2026-04-26 12:52 21.88880 -86.05171 20991 ft 389 kts 225°
2026-04-26 12:52 21.86836 -86.07091 20711 ft 390 kts 225°
2026-04-26 12:52 21.84806 -86.08999 20448 ft 386 kts 225°
2026-04-26 12:52 21.82780 -86.10903 20208 ft 387 kts 225°
2026-04-26 12:53 21.80753 -86.12810 20003 ft 386 kts 225°
2026-04-26 12:53 21.78756 -86.14684 19858 ft 376 kts 225°
2026-04-26 12:53 21.76809 -86.16512 19645 ft 375 kts 225°
2026-04-26 12:53 21.74822 -86.18384 19416 ft 379 kts 225°
2026-04-26 12:54 21.72838 -86.20249 19082 ft 379 kts 225°
2026-04-26 12:54 21.70838 -86.22128 18907 ft 383 kts 225°
2026-04-26 12:54 21.68834 -86.24009 18669 ft 382 kts 225°
2026-04-26 12:54 21.66832 -86.25887 18334 ft 382 kts 224°
2026-04-26 12:55 21.64831 -86.27766 17958 ft 382 kts 224°
2026-04-26 12:55 21.62832 -86.29645 17583 ft 381 kts 224°
2026-04-26 12:55 21.60839 -86.31511 17195 ft 378 kts 224°
2026-04-26 12:55 21.58890 -86.33337 16808 ft 374 kts 224°
2026-04-26 12:56 21.56917 -86.35186 16428 ft 370 kts 224°
2026-04-26 12:56 21.55006 -86.36976 16018 ft 368 kts 224°
2026-04-26 12:56 21.53069 -86.38753 15642 ft 366 kts 220°
2026-04-26 12:56 21.51001 -86.40340 15306 ft 365 kts 217°
2026-04-26 12:57 21.48899 -86.41849 14968 ft 363 kts 216°
2026-04-26 12:57 21.46799 -86.43344 14616 ft 361 kts 216°
2026-04-26 12:57 21.44715 -86.44827 14273 ft 359 kts 216°
2026-04-26 12:58 21.40585 -86.47774 13581 ft 354 kts 216°
2026-04-26 12:58 21.38541 -86.49233 13229 ft 354 kts 216°
2026-04-26 12:58 21.36503 -86.50690 12889 ft 350 kts 216°
2026-04-26 12:58 21.34480 -86.52142 12553 ft 350 kts 216°
2026-04-26 12:59 21.32462 -86.53586 12244 ft 348 kts 216°
2026-04-26 12:59 21.30450 -86.55022 11890 ft 347 kts 216°
2026-04-26 12:59 21.28444 -86.56453 11553 ft 346 kts 216°
2026-04-26 12:59 21.26450 -86.57876 11228 ft 344 kts 215°
2026-04-26 13:00 21.24473 -86.59287 10992 ft 337 kts 216°
2026-04-26 13:00 21.22553 -86.60656 10831 ft 325 kts 216°
2026-04-26 13:00 21.20721 -86.61962 10514 ft 308 kts 216°
2026-04-26 13:00 21.18951 -86.63226 10112 ft 305 kts 216°
2026-04-26 13:01 21.17199 -86.64476 9781 ft 303 kts 216°
2026-04-26 13:01 21.15445 -86.65728 9574 ft 301 kts 215°
2026-04-26 13:01 21.13713 -86.66964 9260 ft 299 kts 215°
2026-04-26 13:01 21.11977 -86.68203 8962 ft 298 kts 215°
2026-04-26 13:02 21.10280 -86.69412 8763 ft 287 kts 215°
2026-04-26 13:02 21.08706 -86.70614 8535 ft 269 kts 224°
2026-04-26 13:02 21.07654 -86.72196 8252 ft 259 kts 252°
2026-04-26 13:02 21.07493 -86.74075 8010 ft 254 kts 283°
2026-04-26 13:03 21.08159 -86.75797 7751 ft 250 kts 303°
2026-04-26 13:03 21.09110 -86.77353 7480 ft 250 kts 306°
2026-04-26 13:03 21.10101 -86.78890 7193 ft 251 kts 306°
2026-04-26 13:03 21.11093 -86.80434 6924 ft 253 kts 305°
2026-04-26 13:04 21.12081 -86.81986 6698 ft 252 kts 305°
2026-04-26 13:04 21.13050 -86.83519 6460 ft 251 kts 304°
2026-04-26 13:04 21.14021 -86.85063 6203 ft 250 kts 304°
2026-04-26 13:04 21.14994 -86.86611 5907 ft 250 kts 304°
2026-04-26 13:05 21.15959 -86.88157 5632 ft 250 kts 304°
2026-04-26 13:05 21.16920 -86.89699 5375 ft 250 kts 304°
2026-04-26 13:05 21.17887 -86.91243 5151 ft 247 kts 304°
2026-04-26 13:05 21.18841 -86.92773 4876 ft 247 kts 304°
2026-04-26 13:06 21.19797 -86.94304 4600 ft 248 kts 304°
2026-04-26 13:06 21.20761 -86.95845 4267 ft 250 kts 304°
2026-04-26 13:06 21.21731 -86.97393 3975 ft 249 kts 304°
2026-04-26 13:06 21.22689 -86.98928 3734 ft 247 kts 303°
2026-04-26 13:07 21.23628 -87.00441 3615 ft 240 kts 303°
2026-04-26 13:07 21.24539 -87.01908 3483 ft 233 kts 303°
2026-04-26 13:07 21.25433 -87.03343 3276 ft 231 kts 303°
2026-04-26 13:07 21.26205 -87.04838 3052 ft 228 kts 288°
2026-04-26 13:08 21.26428 -87.06474 3033 ft 220 kts 263°
2026-04-26 13:08 21.25927 -87.07967 3020 ft 210 kts 230°
2026-04-26 13:08 21.24782 -87.08799 3003 ft 199 kts 188°
2026-04-26 13:08 21.23421 -87.08753 3010 ft 196 kts 168°
2026-04-26 13:09 21.22082 -87.08487 3001 ft 195 kts 166°
2026-04-26 13:09 21.20772 -87.08212 2895 ft 190 kts 167°
2026-04-26 13:09 21.19473 -87.07949 2820 ft 190 kts 167°
2026-04-26 13:09 21.18168 -87.07699 2665 ft 187 kts 167°
2026-04-26 13:10 21.16922 -87.07384 2415 ft 182 kts 159°
2026-04-26 13:10 21.15832 -87.06758 2151 ft 175 kts 141°
2026-04-26 13:10 21.15009 -87.05828 2024 ft 173 kts 128°
2026-04-26 13:10 21.14318 -87.04764 2005 ft 174 kts 126°
2026-04-26 13:11 21.13637 -87.03683 2004 ft 174 kts 125°
2026-04-26 13:11 21.12965 -87.02608 2005 ft 173 kts 125°
2026-04-26 13:11 21.12288 -87.01537 2012 ft 173 kts 126°
2026-04-26 13:11 21.11640 -87.00501 2000 ft 160 kts 126°
2026-04-26 13:12 21.11044 -86.99547 2004 ft 151 kts 126°
2026-04-26 13:12 21.10455 -86.98609 2015 ft 155 kts 125°
2026-04-26 13:12 21.09846 -86.97633 1879 ft 155 kts 125°
2026-04-26 13:12 21.09275 -86.96709 1676 ft 141 kts 126°
2026-04-26 13:13 21.08752 -86.95870 1488 ft 132 kts 126°
2026-04-26 13:13 21.08251 -86.95061 1326 ft 132 kts 125°
2026-04-26 13:13 21.07739 -86.94240 1136 ft 131 kts 126°
2026-04-26 13:13 21.07230 -86.93429 976 ft 131 kts 123°
2026-04-26 13:14 21.06725 -86.92614 803 ft 132 kts 125°
2026-04-26 13:14 21.06204 -86.91806 632 ft 132 kts 122°
2026-04-26 13:14 21.05694 -86.90993 474 ft 131 kts 120°
2026-04-26 13:14 21.05195 -86.90175 311 ft 130 kts 120°
2026-04-26 13:15 21.04705 -86.89376 155 ft 127 kts 123°
2026-04-26 13:15 21.04216 -86.88592 41 ft 122 kts 124°
2026-04-26 13:15 21.03838 -86.87990 37 ft 72 kts 123°
2026-04-26 13:15 21.03696 -86.87762 39 ft 41 kts 124°
2026-04-26 13:16 21.03621 -86.87601 40 ft 13 kts 105°
2026-04-26 13:16 21.03602 -86.87504 40 ft 14 kts 98°
2026-04-26 13:16 21.03595 -86.87397 37 ft 14 kts 92°
2026-04-26 13:16 21.03642 -86.87338 35 ft 14 kts 33°
2026-04-26 13:17 21.03655 -86.87246 34 ft 6 kts 124°
2026-04-26 13:17 21.03627 -86.87204 34 ft 8 kts 124°
2026-04-26 13:18 21.03627 -86.87144 33 ft 6 kts 43°
2026-04-26 13:18 21.03664 -86.87117 32 ft 6 kts 34°
2026-04-26 13:18 21.03672 -86.87111 33 ft 0 kts 34°